Time,TemperatureF,DewpointF,PressureIn,WindDirection,WindDirectionDegrees,WindSpeedMPH,WindSpeedGustMPH,Humidity,HourlyPrecipIn,Conditions,Clouds,dailyrainin,SoftwareType,DateUTC
2013-03-02 00:00:00,27.6,26.4,29.64,N/A,-737280,0.0,0.0,95,0.00,,,0.00,Wunderground v.1.13,2013-03-02 05:00:00,
2013-03-02 00:02:00,27.6,26.4,29.64,N/A,-737280,0.0,0.0,95,0.00,,,0.00,Wunderground v.1.13,2013-03-02 05:02:00,
2013-03-02 00:03:00,30.0,25.8,29.65,WNW,298,0.0,0.0,84,0.00,,,0.00,Wunderground v.1.13,2013-03-02 05:03:00,
2013-03-02 00:04:00,27.6,26.4,29.64,N/A,-737280,0.0,0.0,95,0.00,,,0.00,Wunderground v.1.13,2013-03-02 05:04:00,
2013-03-02 00:06:00,27.6,26.4,29.64,N/A,-737280,0.0,0.0,95,0.00,,,0.00,Wunderground v.1.13,2013-03-02 05:06:00,
2013-03-02 00:08:00,30.0,25.8,29.65,WNW,298,0.0,0.0,84,0.00,,,0.00,Wunderground v.1.13,2013-03-02 05:08:00,
2013-03-02 00:10:00,27.6,26.4,29.64,N/A,-737280,0.0,0.0,95,0.00,,,0.00,Wunderground v.1.13,2013-03-02 05:10:00,
2013-03-02 00:12:00,27.6,26.4,29.64,N/A,-737280,0.0,0.0,95,0.00,,,0.00,Wunderground v.1.13,2013-03-02 05:12:00,
2013-03-02 00:13:00,30.0,26.3,29.65,WNW,298,0.0,0.0,86,0.00,,,0.00,Wunderground v.1.13,2013-03-02 05:13:00,
2013-03-02 00:14:00,27.6,26.6,29.65,N/A,-737280,0.0,0.0,96,0.00,,,0.00,Wunderground v.1.13,2013-03-02 05:14:00,
2013-03-02 00:16:00,27.6,26.6,29.65,N/A,-737280,0.0,0.0,96,0.00,,,0.00,Wunderground v.1.13,2013-03-02 05:16:00,
2013-03-02 00:18:00,29.8,25.6,29.64,WNW,298,0.0,0.0,84,0.00,,,0.00,Wunderground v.1.13,2013-03-02 05:18:00,
2013-03-02 00:20:00,27.6,26.6,29.65,N/A,-737280,0.0,0.0,96,0.00,,,0.00,Wunderground v.1.13,2013-03-02 05:20:00,
2013-03-02 00:22:00,27.6,26.6,29.65,N/A,-737280,0.0,0.0,96,0.00,,,0.00,Wunderground v.1.13,2013-03-02 05:22:00,
2013-03-02 00:23:00,29.8,25.8,29.64,WNW,298,0.0,0.0,85,0.00,,,0.00,Wunderground v.1.13,2013-03-02 05:23:00,
2013-03-02 00:24:00,27.6,26.6,29.65,N/A,-737280,0.0,0.0,96,0.00,,,0.00,Wunderground v.1.13,2013-03-02 05:24:00,
2013-03-02 00:26:00,27.6,26.6,29.65,N/A,-737280,0.0,0.0,96,0.00,,,0.00,Wunderground v.1.13,2013-03-02 05:26:00,
2013-03-02 00:28:00,29.8,26.1,29.64,WNW,298,0.0,0.0,86,0.00,,,0.00,Wunderground v.1.13,2013-03-02 05:28:00,
2013-03-02 00:30:00,27.6,26.6,29.66,N/A,-737280,0.0,0.0,96,0.00,,,0.00,Wunderground v.1.13,2013-03-02 05:30:00,
2013-03-02 00:32:00,27.6,26.6,29.66,N/A,-737280,0.0,0.0,96,0.00,,,0.00,Wunderground v.1.13,2013-03-02 05:32:00,
2013-03-02 00:33:00,29.8,25.6,29.64,WNW,298,0.0,1.0,84,0.00,,,0.00,Wunderground v.1.13,2013-03-02 05:33:00,
2013-03-02 00:34:00,27.5,26.5,29.66,N/A,-737280,0.0,0.0,96,0.00,,,0.00,Wunderground v.1.13,2013-03-02 05:34:00,
2013-03-02 00:36:00,27.5,26.5,29.66,N/A,-737280,0.0,0.0,96,0.00,,,0.00,Wunderground v.1.13,2013-03-02 05:36:00,
2013-03-02 00:38:00,27.5,26.5,29.66,N/A,-737280,0.0,0.0,96,0.00,,,0.00,Wunderground v.1.13,2013-03-02 05:38:00,
2013-03-02 00:40:00,27.5,26.5,29.66,N/A,-737280,0.0,0.0,96,0.00,,,0.00,Wunderground v.1.13,2013-03-02 05:40:00,
2013-03-02 00:42:00,27.5,26.5,29.66,N/A,-737280,0.0,0.0,96,0.00,,,0.00,Wunderground v.1.13,2013-03-02 05:42:00,
2013-03-02 00:43:00,29.7,25.7,29.64,NW,304,0.0,1.0,85,0.00,,,0.00,Wunderground v.1.13,2013-03-02 05:43:00,
2013-03-02 00:44:00,27.5,26.5,29.66,N/A,-737280,0.0,0.0,96,0.00,,,0.00,Wunderground v.1.13,2013-03-02 05:44:00,
2013-03-02 00:46:00,27.5,26.5,29.66,N/A,-737280,0.0,0.0,96,0.00,,,0.00,Wunderground v.1.13,2013-03-02 05:46:00,
2013-03-02 00:48:00,27.3,26.1,29.66,N/A,-737280,0.0,0.0,95,0.00,,,0.00,Wunderground v.1.13,2013-03-02 05:48:00,
2013-03-02 00:50:00,27.3,26.1,29.66,N/A,-737280,0.0,0.0,95,0.00,,,0.00,Wunderground v.1.13,2013-03-02 05:50:00,
2013-03-02 00:52:00,27.3,26.1,29.66,N/A,-737280,0.0,0.0,95,0.00,,,0.00,Wunderground v.1.13,2013-03-02 05:52:00,
2013-03-02 00:53:00,29.7,26.0,29.63,NW,304,0.0,1.0,86,0.00,,,0.00,Wunderground v.1.13,2013-03-02 05:53:00,
2013-03-02 00:54:00,27.3,26.1,29.66,N/A,-737280,0.0,0.0,95,0.00,,,0.00,Wunderground v.1.13,2013-03-02 05:54:00,
2013-03-02 00:56:00,27.3,26.1,29.66,N/A,-737280,0.0,0.0,95,0.00,,,0.00,Wunderground v.1.13,2013-03-02 05:56:00,
2013-03-02 00:58:00,27.3,26.1,29.66,N/A,-737280,0.0,0.0,95,0.00,,,0.00,Wunderground v.1.13,2013-03-02 05:58:00,
2013-03-02 01:00:00,27.3,26.1,29.66,N/A,-737280,0.0,0.0,95,0.00,,,0.00,Wunderground v.1.13,2013-03-02 06:00:00,
2013-03-02 01:02:00,27.3,26.1,29.66,N/A,-737280,0.0,0.0,95,0.00,,,0.00,Wunderground v.1.13,2013-03-02 06:02:00,
2013-03-02 01:03:00,29.7,26.0,29.63,NW,319,0.0,0.0,86,0.00,,,0.00,Wunderground v.1.13,2013-03-02 06:03:00,
2013-03-02 01:04:00,27.3,26.1,29.66,N/A,-737280,0.0,0.0,95,0.00,,,0.00,Wunderground v.1.13,2013-03-02 06:04:00,
2013-03-02 01:06:00,27.3,26.1,29.66,N/A,-737280,0.0,0.0,95,0.00,,,0.00,Wunderground v.1.13,2013-03-02 06:06:00,
2013-03-02 01:08:00,29.5,25.8,29.63,NW,319,0.0,1.0,86,0.00,,,0.00,Wunderground v.1.13,2013-03-02 06:08:00,
2013-03-02 01:10:00,27.3,26.1,29.66,N/A,-737280,0.0,0.0,95,0.00,,,0.00,Wunderground v.1.13,2013-03-02 06:10:00,
2013-03-02 01:12:00,27.3,26.1,29.66,N/A,-737280,0.0,0.0,95,0.00,,,0.00,Wunderground v.1.13,2013-03-02 06:12:00,
2013-03-02 01:14:00,27.3,26.1,29.66,N/A,-737280,0.0,0.0,95,0.00,,,0.00,Wunderground v.1.13,2013-03-02 06:14:00,
2013-03-02 01:16:00,27.3,26.1,29.66,N/A,-737280,0.0,0.0,95,0.00,,,0.00,Wunderground v.1.13,2013-03-02 06:16:00,
2013-03-02 01:18:00,29.5,25.8,29.63,NW,319,0.0,1.0,86,0.00,,,0.00,Wunderground v.1.13,2013-03-02 06:18:00,
2013-03-02 01:20:00,27.5,26.3,29.66,N/A,-737280,0.0,0.0,95,0.00,,,0.00,Wunderground v.1.13,2013-03-02 06:20:00,
2013-03-02 01:22:00,27.5,26.3,29.66,N/A,-737280,0.0,0.0,95,0.00,,,0.00,Wunderground v.1.13,2013-03-02 06:22:00,
2013-03-02 01:24:00,27.5,26.3,29.66,N/A,-737280,0.0,0.0,95,0.00,,,0.00,Wunderground v.1.13,2013-03-02 06:24:00,
2013-03-02 01:26:00,27.5,26.3,29.66,N/A,-737280,0.0,0.0,95,0.00,,,0.00,Wunderground v.1.13,2013-03-02 06:26:00,
2013-03-02 01:28:00,29.5,26.1,29.63,NW,319,0.0,0.0,87,0.00,,,0.00,Wunderground v.1.13,2013-03-02 06:28:00,
2013-03-02 01:30:00,27.5,26.3,29.66,N/A,-737280,0.0,0.0,95,0.00,,,0.00,Wunderground v.1.13,2013-03-02 06:30:00,
2013-03-02 01:32:00,27.5,26.3,29.66,N/A,-737280,0.0,0.0,95,0.00,,,0.00,Wunderground v.1.13,2013-03-02 06:32:00,
2013-03-02 01:34:00,27.5,26.3,29.66,N/A,-737280,0.0,0.0,95,0.00,,,0.00,Wunderground v.1.13,2013-03-02 06:34:00,
2013-03-02 01:36:00,27.5,26.3,29.66,N/A,-737280,0.0,0.0,95,0.00,,,0.00,Wunderground v.1.13,2013-03-02 06:36:00,
2013-03-02 01:38:00,29.4,26.3,29.63,NW,319,0.0,0.0,88,0.00,,,0.00,Wunderground v.1.13,2013-03-02 06:38:00,
2013-03-02 01:40:00,27.5,26.0,29.66,NW,315,0.0,1.0,94,0.00,,,0.00,Wunderground v.1.13,2013-03-02 06:40:00,
2013-03-02 01:42:00,27.5,26.0,29.66,NW,315,0.0,1.0,94,0.00,,,0.00,Wunderground v.1.13,2013-03-02 06:42:00,
2013-03-02 01:44:00,27.6,26.1,29.67,N/A,-737280,0.0,1.0,94,0.00,,,0.00,Wunderground v.1.13,2013-03-02 06:44:00,
2013-03-02 01:46:00,27.6,26.1,29.67,N/A,-737280,0.0,1.0,94,0.00,,,0.00,Wunderground v.1.13,2013-03-02 06:46:00,
2013-03-02 01:48:00,29.4,26.0,29.63,NW,319,0.0,0.0,87,0.00,,,0.00,Wunderground v.1.13,2013-03-02 06:48:00,
2013-03-02 01:50:00,27.6,26.1,29.67,N/A,-737280,0.0,0.0,94,0.00,,,0.00,Wunderground v.1.13,2013-03-02 06:50:00,
2013-03-02 01:52:00,27.6,26.1,29.67,N/A,-737280,0.0,0.0,94,0.00,,,0.00,Wunderground v.1.13,2013-03-02 06:52:00,
2013-03-02 01:54:00,27.6,26.1,29.67,N/A,-737280,0.0,0.0,94,0.00,,,0.00,Wunderground v.1.13,2013-03-02 06:54:00,
2013-03-02 01:56:00,27.6,26.1,29.67,N/A,-737280,0.0,0.0,94,0.00,,,0.00,Wunderground v.1.13,2013-03-02 06:56:00,
2013-03-02 01:58:00,29.3,26.2,29.63,NW,319,0.0,0.0,88,0.00,,,0.00,Wunderground v.1.13,2013-03-02 06:58:00,
2013-03-02 02:00:00,27.8,26.0,29.67,NNW,338,0.0,2.0,93,0.00,,,0.00,Wunderground v.1.13,2013-03-02 07:00:00,
2013-03-02 02:02:00,27.8,26.0,29.67,NNW,338,0.0,2.0,93,0.00,,,0.00,Wunderground v.1.13,2013-03-02 07:02:00,
2013-03-02 02:03:00,29.3,26.5,29.63,NW,319,0.0,0.0,89,0.00,,,0.00,Wunderground v.1.13,2013-03-02 07:03:00,
2013-03-02 02:04:00,27.9,25.9,29.67,ESE,113,0.0,2.0,92,0.00,,,0.00,Wunderground v.1.13,2013-03-02 07:04:00,
2013-03-02 02:06:00,27.9,25.9,29.67,ESE,113,0.0,2.0,92,0.00,,,0.00,Wunderground v.1.13,2013-03-02 07:06:00,
2013-03-02 02:08:00,29.3,26.7,29.63,NW,319,0.0,0.0,90,0.00,,,0.00,Wunderground v.1.13,2013-03-02 07:08:00,
2013-03-02 02:10:00,28.1,26.1,29.67,NE,45,0.0,1.0,92,0.00,,,0.00,Wunderground v.1.13,2013-03-02 07:10:00,
2013-03-02 02:12:00,28.1,26.1,29.67,NE,45,0.0,1.0,92,0.00,,,0.00,Wunderground v.1.13,2013-03-02 07:12:00,
2013-03-02 02:14:00,28.2,25.9,29.67,NE,45,0.0,1.0,91,0.00,,,0.00,Wunderground v.1.13,2013-03-02 07:14:00,
2013-03-02 02:16:00,28.2,25.9,29.67,NE,45,0.0,1.0,91,0.00,,,0.00,Wunderground v.1.13,2013-03-02 07:16:00,
2013-03-02 02:18:00,29.3,26.7,29.63,NW,319,0.0,0.0,90,0.00,,,0.00,Wunderground v.1.13,2013-03-02 07:18:00,
2013-03-02 02:20:00,28.7,26.4,29.67,N/A,-737280,0.0,0.0,91,0.00,,,0.00,Wunderground v.1.13,2013-03-02 07:20:00,
2013-03-02 02:22:00,28.7,26.4,29.67,N/A,-737280,0.0,0.0,91,0.00,,,0.00,Wunderground v.1.13,2013-03-02 07:22:00,
2013-03-02 02:23:00,29.3,27.0,29.63,NW,319,0.0,0.0,91,0.00,,,0.00,Wunderground v.1.13,2013-03-02 07:23:00,
2013-03-02 02:24:00,29.0,26.4,29.67,N/A,-737280,0.0,0.0,90,0.00,,,0.00,Wunderground v.1.13,2013-03-02 07:24:00,
2013-03-02 02:26:00,29.0,26.4,29.67,N/A,-737280,0.0,0.0,90,0.00,,,0.00,Wunderground v.1.13,2013-03-02 07:26:00,
2013-03-02 02:28:00,29.4,27.1,29.66,N/A,-737280,0.0,0.0,91,0.00,,,0.00,Wunderground v.1.13,2013-03-02 07:28:00,
2013-03-02 02:30:00,29.4,27.1,29.66,N/A,-737280,0.0,0.0,91,0.00,,,0.00,Wunderground v.1.13,2013-03-02 07:30:00,
2013-03-02 02:32:00,29.4,27.1,29.66,N/A,-737280,0.0,0.0,91,0.00,,,0.00,Wunderground v.1.13,2013-03-02 07:32:00,
2013-03-02 02:33:00,29.1,26.5,29.62,NW,319,0.0,0.0,90,0.00,,,0.00,Wunderground v.1.13,2013-03-02 07:33:00,
2013-03-02 02:34:00,29.7,26.3,29.66,NNW,338,0.0,2.0,87,0.00,,,0.00,Wunderground v.1.13,2013-03-02 07:34:00,
2013-03-02 02:36:00,29.7,26.3,29.66,NNW,338,0.0,2.0,87,0.00,,,0.00,Wunderground v.1.13,2013-03-02 07:36:00,
2013-03-02 02:38:00,30.0,26.3,29.66,NNW,338,0.0,1.0,86,0.00,,,0.00,Wunderground v.1.13,2013-03-02 07:38:00,
2013-03-02 02:40:00,30.0,26.3,29.66,NNW,338,0.0,1.0,86,0.00,,,0.00,Wunderground v.1.13,2013-03-02 07:40:00,
2013-03-02 02:42:00,30.0,26.3,29.66,NNW,338,0.0,1.0,86,0.00,,,0.00,Wunderground v.1.13,2013-03-02 07:42:00,
2013-03-02 02:43:00,29.1,27.1,29.62,NW,319,0.0,0.0,92,0.00,,,0.00,Wunderground v.1.13,2013-03-02 07:43:00,
2013-03-02 02:44:00,30.0,26.3,29.66,NNW,338,0.0,1.0,86,0.00,,,0.00,Wunderground v.1.13,2013-03-02 07:44:00,
2013-03-02 02:46:00,30.0,26.3,29.66,NNW,338,0.0,1.0,86,0.00,,,0.00,Wunderground v.1.13,2013-03-02 07:46:00,
2013-03-02 02:48:00,30.1,26.1,29.66,NNW,338,0.0,2.0,85,0.00,,,0.00,Wunderground v.1.13,2013-03-02 07:48:00,
2013-03-02 02:50:00,30.1,26.1,29.66,NNW,338,0.0,2.0,85,0.00,,,0.00,Wunderground v.1.13,2013-03-02 07:50:00,
2013-03-02 02:52:00,30.1,26.1,29.66,NNW,338,0.0,2.0,85,0.00,,,0.00,Wunderground v.1.13,2013-03-02 07:52:00,
2013-03-02 02:53:00,29.0,27.0,29.63,NW,319,0.0,0.0,92,0.00,,,0.00,Wunderground v.1.13,2013-03-02 07:53:00,
2013-03-02 02:54:00,30.4,27.0,29.66,NW,315,0.0,2.0,87,0.00,,,0.00,Wunderground v.1.13,2013-03-02 07:54:00,
2013-03-02 02:56:00,30.4,27.0,29.66,NW,315,0.0,2.0,87,0.00,,,0.00,Wunderground v.1.13,2013-03-02 07:56:00,
2013-03-02 02:58:00,30.4,26.1,29.66,NNW,338,1.0,5.0,84,0.00,,,0.00,Wunderground v.1.13,2013-03-02 07:58:00,
2013-03-02 03:00:00,30.4,26.1,29.66,NNW,338,1.0,5.0,84,0.00,,,0.00,Wunderground v.1.13,2013-03-02 08:00:00,
2013-03-02 03:02:00,30.4,26.1,29.66,NNW,338,1.0,5.0,84,0.00,,,0.00,Wunderground v.1.13,2013-03-02 08:02:00,
2013-03-02 03:03:00,28.8,26.8,29.62,NW,319,0.0,0.0,92,0.00,,,0.00,Wunderground v.1.13,2013-03-02 08:03:00,
2013-03-02 03:04:00,30.6,26.1,29.66,NNW,338,0.0,3.0,83,0.00,,,0.00,Wunderground v.1.13,2013-03-02 08:04:00,
2013-03-02 03:06:00,30.6,26.1,29.66,NNW,338,0.0,3.0,83,0.00,,,0.00,Wunderground v.1.13,2013-03-02 08:06:00,
2013-03-02 03:08:00,30.7,25.9,29.66,NNW,338,1.0,4.0,82,0.00,,,0.00,Wunderground v.1.13,2013-03-02 08:08:00,
2013-03-02 03:10:00,30.7,25.9,29.66,NNW,338,1.0,4.0,82,0.00,,,0.00,Wunderground v.1.13,2013-03-02 08:10:00,
2013-03-02 03:12:00,30.7,25.9,29.66,NNW,338,1.0,4.0,82,0.00,,,0.00,Wunderground v.1.13,2013-03-02 08:12:00,
2013-03-02 03:13:00,28.7,26.9,29.62,NW,319,0.0,0.0,93,0.00,,,0.00,Wunderground v.1.13,2013-03-02 08:13:00,
2013-03-02 03:14:00,30.7,25.6,29.67,North,0,1.0,3.0,81,0.00,,,0.00,Wunderground v.1.13,2013-03-02 08:14:00,
2013-03-02 03:16:00,30.7,25.6,29.67,North,0,1.0,3.0,81,0.00,,,0.00,Wunderground v.1.13,2013-03-02 08:16:00,
2013-03-02 03:18:00,30.9,25.5,29.67,SE,135,0.0,1.0,80,0.00,,,0.00,Wunderground v.1.13,2013-03-02 08:18:00,
2013-03-02 03:20:00,30.9,25.5,29.67,SE,135,0.0,1.0,80,0.00,,,0.00,Wunderground v.1.13,2013-03-02 08:20:00,
2013-03-02 03:22:00,30.9,25.5,29.67,SE,135,0.0,1.0,80,0.00,,,0.00,Wunderground v.1.13,2013-03-02 08:22:00,
2013-03-02 03:23:00,28.7,26.9,29.62,NW,319,0.0,0.0,93,0.00,,,0.00,Wunderground v.1.13,2013-03-02 08:23:00,
2013-03-02 03:24:00,31.2,25.7,29.67,East,90,0.0,1.0,80,0.00,,,0.00,Wunderground v.1.13,2013-03-02 08:24:00,
2013-03-02 03:26:00,31.2,25.7,29.67,East,90,0.0,1.0,80,0.00,,,0.00,Wunderground v.1.13,2013-03-02 08:26:00,
2013-03-02 03:28:00,28.5,26.5,29.62,NW,319,0.0,0.0,92,0.00,,,0.00,Wunderground v.1.13,2013-03-02 08:28:00,
2013-03-02 03:30:00,31.3,25.8,29.67,NE,45,1.0,6.0,80,0.00,,,0.00,Wunderground v.1.13,2013-03-02 08:30:00,
2013-03-02 03:32:00,31.3,25.8,29.67,NE,45,1.0,6.0,80,0.00,,,0.00,Wunderground v.1.13,2013-03-02 08:32:00,
2013-03-02 03:34:00,31.5,25.4,29.67,North,0,1.0,3.0,78,0.00,,,0.00,Wunderground v.1.13,2013-03-02 08:34:00,
2013-03-02 03:36:00,31.5,25.4,29.67,North,0,1.0,3.0,78,0.00,,,0.00,Wunderground v.1.13,2013-03-02 08:36:00,
2013-03-02 03:38:00,28.5,26.2,29.62,NW,319,0.0,0.0,91,0.00,,,0.00,Wunderground v.1.13,2013-03-02 08:38:00,
2013-03-02 03:40:00,31.6,24.9,29.67,ENE,68,1.0,5.0,76,0.00,,,0.00,Wunderground v.1.13,2013-03-02 08:40:00,
2013-03-02 03:42:00,31.6,24.9,29.67,ENE,68,1.0,5.0,76,0.00,,,0.00,Wunderground v.1.13,2013-03-02 08:42:00,
2013-03-02 03:43:00,28.5,26.2,29.62,NW,319,0.0,0.0,91,0.00,,,0.00,Wunderground v.1.13,2013-03-02 08:43:00,
2013-03-02 03:44:00,31.9,25.8,29.66,NNW,338,0.0,3.0,78,0.00,,,0.00,Wunderground v.1.13,2013-03-02 08:44:00,
2013-03-02 03:46:00,31.9,25.8,29.66,NNW,338,0.0,3.0,78,0.00,,,0.00,Wunderground v.1.13,2013-03-02 08:46:00,
2013-03-02 03:48:00,28.5,26.2,29.62,NW,319,0.0,0.0,91,0.00,,,0.00,Wunderground v.1.13,2013-03-02 08:48:00,
2013-03-02 03:50:00,32.4,25.7,29.66,NNW,338,1.0,6.0,76,0.00,,,0.00,Wunderground v.1.13,2013-03-02 08:50:00,
2013-03-02 03:52:00,32.4,25.7,29.66,NNW,338,1.0,6.0,76,0.00,,,0.00,Wunderground v.1.13,2013-03-02 08:52:00,
2013-03-02 03:54:00,32.7,26.6,29.66,NNE,23,0.0,3.0,78,0.00,,,0.00,Wunderground v.1.13,2013-03-02 08:54:00,
2013-03-02 03:56:00,32.7,26.6,29.66,NNE,23,0.0,3.0,78,0.00,,,0.00,Wunderground v.1.13,2013-03-02 08:56:00,
2013-03-02 03:58:00,28.5,26.7,29.62,NW,319,0.0,0.0,93,0.00,,,0.00,Wunderground v.1.13,2013-03-02 08:58:00,
2013-03-02 04:00:00,32.8,24.8,29.66,NNW,338,1.0,5.0,72,0.00,,,0.00,Wunderground v.1.13,2013-03-02 09:00:00,
2013-03-02 04:02:00,32.8,24.8,29.66,NNW,338,1.0,5.0,72,0.00,,,0.00,Wunderground v.1.13,2013-03-02 09:02:00,
2013-03-02 04:03:00,28.5,26.7,29.61,NW,319,0.0,0.0,93,0.00,,,0.00,Wunderground v.1.13,2013-03-02 09:03:00,
2013-03-02 04:04:00,32.9,25.8,29.66,NNW,338,1.0,3.0,75,0.00,,,0.00,Wunderground v.1.13,2013-03-02 09:04:00,
2013-03-02 04:06:00,32.9,25.8,29.66,NNW,338,1.0,3.0,75,0.00,,,0.00,Wunderground v.1.13,2013-03-02 09:06:00,
2013-03-02 04:08:00,33.4,26.3,29.66,North,0,1.0,3.0,75,0.00,,,0.00,Wunderground v.1.13,2013-03-02 09:08:00,
2013-03-02 04:10:00,33.4,26.3,29.66,North,0,1.0,3.0,75,0.00,,,0.00,Wunderground v.1.13,2013-03-02 09:10:00,
2013-03-02 04:12:00,33.4,26.3,29.66,North,0,1.0,3.0,75,0.00,,,0.00,Wunderground v.1.13,2013-03-02 09:12:00,
2013-03-02 04:13:00,28.4,26.9,29.61,NW,319,0.0,1.0,94,0.00,,,0.00,Wunderground v.1.13,2013-03-02 09:13:00,
2013-03-02 04:14:00,33.8,27.0,29.65,West,270,0.0,1.0,76,0.00,,,0.00,Wunderground v.1.13,2013-03-02 09:14:00,
2013-03-02 04:16:00,33.8,27.0,29.65,West,270,0.0,1.0,76,0.00,,,0.00,Wunderground v.1.13,2013-03-02 09:16:00,
2013-03-02 04:18:00,33.8,24.7,29.65,West,270,0.0,2.0,69,0.00,,,0.00,Wunderground v.1.13,2013-03-02 09:18:00,
2013-03-02 04:20:00,33.8,24.7,29.65,West,270,0.0,2.0,69,0.00,,,0.00,Wunderground v.1.13,2013-03-02 09:20:00,
2013-03-02 04:22:00,33.8,24.7,29.65,West,270,0.0,2.0,69,0.00,,,0.00,Wunderground v.1.13,2013-03-02 09:22:00,
2013-03-02 04:23:00,28.4,26.9,29.62,NW,319,0.0,0.0,94,0.00,,,0.00,Wunderground v.1.13,2013-03-02 09:23:00,
2013-03-02 04:24:00,33.8,25.0,29.65,NNE,23,0.0,2.0,70,0.00,,,0.00,Wunderground v.1.13,2013-03-02 09:24:00,
2013-03-02 04:26:00,33.8,25.0,29.65,NNE,23,0.0,2.0,70,0.00,,,0.00,Wunderground v.1.13,2013-03-02 09:26:00,
2013-03-02 04:28:00,34.3,26.5,29.64,SSW,203,1.0,6.0,73,0.00,,,0.00,Wunderground v.1.13,2013-03-02 09:28:00,
2013-03-02 04:30:00,34.3,26.5,29.64,SSW,203,1.0,6.0,73,0.00,,,0.00,Wunderground v.1.13,2013-03-02 09:30:00,
2013-03-02 04:32:00,34.3,26.5,29.64,SSW,203,1.0,6.0,73,0.00,,,0.00,Wunderground v.1.13,2013-03-02 09:32:00,
2013-03-02 04:33:00,28.2,26.7,29.62,NW,319,0.0,0.0,94,0.00,,,0.00,Wunderground v.1.13,2013-03-02 09:33:00,
2013-03-02 04:34:00,34.6,25.5,29.64,ESE,113,1.0,5.0,69,0.00,,,0.00,Wunderground v.1.13,2013-03-02 09:34:00,
2013-03-02 04:36:00,34.6,25.5,29.64,ESE,113,1.0,5.0,69,0.00,,,0.00,Wunderground v.1.13,2013-03-02 09:36:00,
2013-03-02 04:38:00,34.7,24.5,29.64,NNE,23,2.0,5.0,66,0.00,,,0.00,Wunderground v.1.13,2013-03-02 09:38:00,
2013-03-02 04:40:00,34.7,24.5,29.64,NNE,23,2.0,5.0,66,0.00,,,0.00,Wunderground v.1.13,2013-03-02 09:40:00,
2013-03-02 04:42:00,34.7,24.5,29.64,NNE,23,2.0,5.0,66,0.00,,,0.00,Wunderground v.1.13,2013-03-02 09:42:00,
2013-03-02 04:43:00,28.2,27.0,29.62,NW,319,0.0,0.0,95,0.00,,,0.00,Wunderground v.1.13,2013-03-02 09:43:00,
2013-03-02 04:44:00,35.0,26.9,29.65,North,0,1.0,5.0,72,0.00,,,0.00,Wunderground v.1.13,2013-03-02 09:44:00,
2013-03-02 04:46:00,35.0,26.9,29.65,North,0,1.0,5.0,72,0.00,,,0.00,Wunderground v.1.13,2013-03-02 09:46:00,
2013-03-02 04:48:00,35.5,25.3,29.65,NW,315,0.0,3.0,66,0.00,,,0.00,Wunderground v.1.13,2013-03-02 09:48:00,
2013-03-02 04:50:00,35.5,25.3,29.65,NW,315,0.0,3.0,66,0.00,,,0.00,Wunderground v.1.13,2013-03-02 09:50:00,
2013-03-02 04:52:00,35.5,25.3,29.65,NW,315,0.0,3.0,66,0.00,,,0.00,Wunderground v.1.13,2013-03-02 09:52:00,
2013-03-02 04:53:00,28.2,27.0,29.63,NW,319,0.0,0.0,95,0.00,,,0.00,Wunderground v.1.13,2013-03-02 09:53:00,
2013-03-02 04:54:00,36.0,25.7,29.65,NW,315,0.0,2.0,66,0.00,,,0.00,Wunderground v.1.13,2013-03-02 09:54:00,
2013-03-02 04:56:00,36.0,25.7,29.65,NW,315,0.0,2.0,66,0.00,,,0.00,Wunderground v.1.13,2013-03-02 09:56:00,
2013-03-02 04:58:00,36.3,25.3,29.64,NNW,338,1.0,4.0,64,0.00,,,0.00,Wunderground v.1.13,2013-03-02 09:58:00,
2013-03-02 05:00:00,36.3,25.3,29.64,NNW,338,1.0,4.0,64,0.00,,,0.00,Wunderground v.1.13,2013-03-02 10:00:00,
2013-03-02 05:02:00,36.3,25.3,29.64,NNW,338,1.0,4.0,64,0.00,,,0.00,Wunderground v.1.13,2013-03-02 10:02:00,
2013-03-02 05:03:00,28.2,27.0,29.63,NW,319,0.0,0.0,95,0.00,,,0.00,Wunderground v.1.13,2013-03-02 10:03:00,
2013-03-02 05:04:00,36.0,25.4,29.64,North,0,1.0,7.0,65,0.00,,,0.00,Wunderground v.1.13,2013-03-02 10:04:00,
2013-03-02 05:06:00,36.0,25.4,29.64,North,0,1.0,7.0,65,0.00,,,0.00,Wunderground v.1.13,2013-03-02 10:06:00,
2013-03-02 05:08:00,36.2,24.8,29.64,North,0,0.0,2.0,63,0.00,,,0.00,Wunderground v.1.13,2013-03-02 10:08:00,
2013-03-02 05:10:00,36.2,24.8,29.64,North,0,0.0,2.0,63,0.00,,,0.00,Wunderground v.1.13,2013-03-02 10:10:00,
2013-03-02 05:12:00,36.2,24.8,29.64,North,0,0.0,2.0,63,0.00,,,0.00,Wunderground v.1.13,2013-03-02 10:12:00,
2013-03-02 05:13:00,28.1,26.9,29.63,NW,319,0.0,0.0,95,0.00,,,0.00,Wunderground v.1.13,2013-03-02 10:13:00,
2013-03-02 05:14:00,36.6,27.4,29.64,SW,225,0.0,2.0,69,0.00,,,0.00,Wunderground v.1.13,2013-03-02 10:14:00,
2013-03-02 05:16:00,36.6,27.4,29.64,SW,225,0.0,2.0,69,0.00,,,0.00,Wunderground v.1.13,2013-03-02 10:16:00,
2013-03-02 05:18:00,36.6,25.6,29.64,North,0,1.0,3.0,64,0.00,,,0.00,Wunderground v.1.13,2013-03-02 10:18:00,
2013-03-02 05:20:00,36.6,25.6,29.64,North,0,1.0,3.0,64,0.00,,,0.00,Wunderground v.1.13,2013-03-02 10:20:00,
2013-03-02 05:22:00,36.6,25.6,29.64,North,0,1.0,3.0,64,0.00,,,0.00,Wunderground v.1.13,2013-03-02 10:22:00,
2013-03-02 05:23:00,27.9,26.7,29.63,NW,319,0.0,0.0,95,0.00,,,0.00,Wunderground v.1.13,2013-03-02 10:23:00,
2013-03-02 05:24:00,36.3,26.0,29.64,North,0,1.0,4.0,66,0.00,,,0.00,Wunderground v.1.13,2013-03-02 10:24:00,
2013-03-02 05:26:00,36.3,26.0,29.64,North,0,1.0,4.0,66,0.00,,,0.00,Wunderground v.1.13,2013-03-02 10:26:00,
2013-03-02 05:28:00,36.5,26.2,29.64,SSE,158,0.0,3.0,66,0.00,,,0.00,Wunderground v.1.13,2013-03-02 10:28:00,
2013-03-02 05:30:00,36.5,26.2,29.64,SSE,158,0.0,3.0,66,0.00,,,0.00,Wunderground v.1.13,2013-03-02 10:30:00,
2013-03-02 05:32:00,36.5,26.2,29.64,SSE,158,0.0,3.0,66,0.00,,,0.00,Wunderground v.1.13,2013-03-02 10:32:00,
2013-03-02 05:33:00,27.9,26.7,29.63,NW,319,0.0,0.0,95,0.00,,,0.00,Wunderground v.1.13,2013-03-02 10:33:00,
2013-03-02 05:34:00,36.3,25.3,29.64,North,0,2.0,6.0,64,0.00,,,0.00,Wunderground v.1.13,2013-03-02 10:34:00,
2013-03-02 05:36:00,36.3,25.3,29.64,North,0,2.0,6.0,64,0.00,,,0.00,Wunderground v.1.13,2013-03-02 10:36:00,
2013-03-02 05:38:00,35.5,23.8,29.64,NNW,338,1.0,3.0,62,0.00,,,0.00,Wunderground v.1.13,2013-03-02 10:38:00,
2013-03-02 05:40:00,35.5,23.8,29.64,NNW,338,1.0,3.0,62,0.00,,,0.00,Wunderground v.1.13,2013-03-02 10:40:00,
2013-03-02 05:42:00,35.5,23.8,29.64,NNW,338,1.0,3.0,62,0.00,,,0.00,Wunderground v.1.13,2013-03-02 10:42:00,
2013-03-02 05:43:00,27.8,26.6,29.63,NW,319,0.0,0.0,95,0.00,,,0.00,Wunderground v.1.13,2013-03-02 10:43:00,
2013-03-02 05:44:00,35.5,25.6,29.65,North,0,1.0,4.0,67,0.00,,,0.00,Wunderground v.1.13,2013-03-02 10:44:00,
2013-03-02 05:46:00,35.5,25.6,29.65,North,0,1.0,4.0,67,0.00,,,0.00,Wunderground v.1.13,2013-03-02 10:46:00,
2013-03-02 05:48:00,36.0,25.0,29.65,North,0,1.0,3.0,64,0.00,,,0.00,Wunderground v.1.13,2013-03-02 10:48:00,
2013-03-02 05:50:00,36.0,25.0,29.65,North,0,1.0,3.0,64,0.00,,,0.00,Wunderground v.1.13,2013-03-02 10:50:00,
2013-03-02 05:52:00,36.0,25.0,29.65,North,0,1.0,3.0,64,0.00,,,0.00,Wunderground v.1.13,2013-03-02 10:52:00,
2013-03-02 05:53:00,27.8,26.8,29.63,NW,319,0.0,0.0,96,0.00,,,0.00,Wunderground v.1.13,2013-03-02 10:53:00,
2013-03-02 05:54:00,35.9,23.7,29.65,North,0,1.0,3.0,61,0.00,,,0.00,Wunderground v.1.13,2013-03-02 10:54:00,
2013-03-02 05:56:00,35.9,23.7,29.65,North,0,1.0,3.0,61,0.00,,,0.00,Wunderground v.1.13,2013-03-02 10:56:00,
2013-03-02 05:58:00,27.8,26.8,29.63,NW,319,0.0,0.0,96,0.00,,,0.00,Wunderground v.1.13,2013-03-02 10:58:00,
2013-03-02 06:00:00,36.0,23.8,29.63,NNW,338,1.0,2.0,61,0.00,,,0.00,Wunderground v.1.13,2013-03-02 11:00:00,
2013-03-02 06:02:00,36.0,23.8,29.63,NNW,338,1.0,2.0,61,0.00,,,0.00,Wunderground v.1.13,2013-03-02 11:02:00,
2013-03-02 06:04:00,36.8,24.6,29.63,NNW,338,1.0,3.0,61,0.00,,,0.00,Wunderground v.1.13,2013-03-02 11:04:00,
2013-03-02 06:06:00,36.8,24.6,29.63,NNW,338,1.0,3.0,61,0.00,,,0.00,Wunderground v.1.13,2013-03-02 11:06:00,
2013-03-02 06:08:00,27.8,26.8,29.64,NW,319,0.0,0.0,96,0.00,,,0.00,Wunderground v.1.13,2013-03-02 11:08:00,
2013-03-02 06:10:00,37.0,24.8,29.63,North,0,1.0,3.0,61,0.00,,,0.00,Wunderground v.1.13,2013-03-02 11:10:00,
2013-03-02 06:12:00,37.0,24.8,29.63,North,0,1.0,3.0,61,0.00,,,0.00,Wunderground v.1.13,2013-03-02 11:12:00,
2013-03-02 06:13:00,27.8,26.8,29.64,NW,319,0.0,0.0,96,0.00,,,0.00,Wunderground v.1.13,2013-03-02 11:13:00,
2013-03-02 06:14:00,37.5,24.1,29.62,NNW,338,1.0,3.0,58,0.00,,,0.00,Wunderground v.1.13,2013-03-02 11:14:00,
2013-03-02 06:16:00,37.5,24.1,29.62,NNW,338,1.0,3.0,58,0.00,,,0.00,Wunderground v.1.13,2013-03-02 11:16:00,
2013-03-02 06:18:00,37.2,23.8,29.62,North,0,1.0,7.0,58,0.00,,,0.00,Wunderground v.1.13,2013-03-02 11:18:00,
2013-03-02 06:20:00,37.2,23.8,29.62,North,0,1.0,7.0,58,0.00,,,0.00,Wunderground v.1.13,2013-03-02 11:20:00,
2013-03-02 06:22:00,37.2,23.8,29.62,North,0,1.0,7.0,58,0.00,,,0.00,Wunderground v.1.13,2013-03-02 11:22:00,
2013-03-02 06:23:00,27.8,26.8,29.64,NW,319,0.0,0.0,96,0.00,,,0.00,Wunderground v.1.13,2013-03-02 11:23:00,
2013-03-02 06:24:00,36.9,24.7,29.62,ENE,68,1.0,5.0,61,0.00,,,0.00,Wunderground v.1.13,2013-03-02 11:24:00,
2013-03-02 06:26:00,36.9,24.7,29.62,ENE,68,1.0,5.0,61,0.00,,,0.00,Wunderground v.1.13,2013-03-02 11:26:00,
2013-03-02 06:28:00,36.8,25.0,29.62,NNE,23,1.0,6.0,62,0.00,,,0.00,Wunderground v.1.13,2013-03-02 11:28:00,
2013-03-02 06:30:00,36.8,25.0,29.62,NNE,23,1.0,6.0,62,0.00,,,0.00,Wunderground v.1.13,2013-03-02 11:30:00,
2013-03-02 06:32:00,36.8,25.0,29.62,NNE,23,1.0,6.0,62,0.00,,,0.00,Wunderground v.1.13,2013-03-02 11:32:00,
2013-03-02 06:33:00,27.6,26.6,29.64,NW,319,0.0,0.0,96,0.00,,,0.00,Wunderground v.1.13,2013-03-02 11:33:00,
2013-03-02 06:34:00,36.5,24.3,29.62,North,0,1.0,6.0,61,0.00,,,0.00,Wunderground v.1.13,2013-03-02 11:34:00,
2013-03-02 06:36:00,36.5,24.3,29.62,North,0,1.0,6.0,61,0.00,,,0.00,Wunderground v.1.13,2013-03-02 11:36:00,
2013-03-02 06:38:00,36.6,25.2,29.62,NW,315,1.0,3.0,63,0.00,,,0.00,Wunderground v.1.13,2013-03-02 11:38:00,
2013-03-02 06:40:00,36.6,25.2,29.62,NW,315,1.0,3.0,63,0.00,,,0.00,Wunderground v.1.13,2013-03-02 11:40:00,
2013-03-02 06:42:00,36.6,25.2,29.62,NW,315,1.0,3.0,63,0.00,,,0.00,Wunderground v.1.13,2013-03-02 11:42:00,
2013-03-02 06:43:00,27.6,26.6,29.64,NW,319,0.0,0.0,96,0.00,,,0.00,Wunderground v.1.13,2013-03-02 11:43:00,
2013-03-02 06:44:00,37.2,25.4,29.61,SSE,158,1.0,4.0,62,0.00,,,0.00,Wunderground v.1.13,2013-03-02 11:44:00,
2013-03-02 06:46:00,37.2,25.4,29.61,SSE,158,1.0,4.0,62,0.00,,,0.00,Wunderground v.1.13,2013-03-02 11:46:00,
2013-03-02 06:48:00,37.0,24.4,29.61,North,0,1.0,5.0,60,0.00,,,0.00,Wunderground v.1.13,2013-03-02 11:48:00,
2013-03-02 06:50:00,37.0,24.4,29.61,North,0,1.0,5.0,60,0.00,,,0.00,Wunderground v.1.13,2013-03-02 11:50:00,
2013-03-02 06:52:00,37.0,24.4,29.61,North,0,1.0,5.0,60,0.00,,,0.00,Wunderground v.1.13,2013-03-02 11:52:00,
2013-03-02 06:53:00,27.6,26.6,29.65,NW,319,0.0,0.0,96,0.00,,,0.00,Wunderground v.1.13,2013-03-02 11:53:00,
2013-03-02 06:54:00,36.9,23.5,29.61,NNW,338,1.0,5.0,58,0.00,,,0.00,Wunderground v.1.13,2013-03-02 11:54:00,
2013-03-02 06:56:00,36.9,23.5,29.61,NNW,338,1.0,5.0,58,0.00,,,0.00,Wunderground v.1.13,2013-03-02 11:56:00,
2013-03-02 06:58:00,36.8,25.0,29.61,NNE,23,1.0,3.0,62,0.00,,,0.00,Wunderground v.1.13,2013-03-02 11:58:00,
2013-03-02 07:00:00,36.8,25.0,29.61,NNE,23,1.0,3.0,62,0.00,,,0.00,Wunderground v.1.13,2013-03-02 12:00:00,
2013-03-02 07:02:00,36.8,25.0,29.61,NNE,23,1.0,3.0,62,0.00,,,0.00,Wunderground v.1.13,2013-03-02 12:02:00,
2013-03-02 07:03:00,27.5,26.5,29.66,NW,319,0.0,0.0,96,0.00,,,0.00,Wunderground v.1.13,2013-03-02 12:03:00,
2013-03-02 07:04:00,36.5,24.7,29.61,NNW,338,1.0,5.0,62,0.00,,,0.00,Wunderground v.1.13,2013-03-02 12:04:00,
2013-03-02 07:06:00,36.5,24.7,29.61,NNW,338,1.0,5.0,62,0.00,,,0.00,Wunderground v.1.13,2013-03-02 12:06:00,
2013-03-02 07:08:00,36.8,26.9,29.61,NNW,338,1.0,3.0,67,0.00,,,0.00,Wunderground v.1.13,2013-03-02 12:08:00,
2013-03-02 07:10:00,36.8,26.9,29.61,NNW,338,1.0,3.0,67,0.00,,,0.00,Wunderground v.1.13,2013-03-02 12:10:00,
2013-03-02 07:12:00,36.8,26.9,29.61,NNW,338,1.0,3.0,67,0.00,,,0.00,Wunderground v.1.13,2013-03-02 12:12:00,
2013-03-02 07:13:00,27.5,26.5,29.66,NW,319,0.0,0.0,96,0.00,,,0.00,Wunderground v.1.13,2013-03-02 12:13:00,
2013-03-02 07:14:00,36.8,25.0,29.60,North,0,1.0,5.0,62,0.00,,,0.00,Wunderground v.1.13,2013-03-02 12:14:00,
2013-03-02 07:16:00,36.8,25.0,29.60,North,0,1.0,5.0,62,0.00,,,0.00,Wunderground v.1.13,2013-03-02 12:16:00,
2013-03-02 07:18:00,36.6,25.6,29.60,NNE,23,0.0,1.0,64,0.00,,,0.00,Wunderground v.1.13,2013-03-02 12:18:00,
2013-03-02 07:20:00,36.6,25.6,29.60,NNE,23,0.0,1.0,64,0.00,,,0.00,Wunderground v.1.13,2013-03-02 12:20:00,
2013-03-02 07:22:00,36.6,25.6,29.60,NNE,23,0.0,1.0,64,0.00,,,0.00,Wunderground v.1.13,2013-03-02 12:22:00,
2013-03-02 07:23:00,27.3,26.1,29.66,NW,319,0.0,0.0,95,0.00,,,0.00,Wunderground v.1.13,2013-03-02 12:23:00,
2013-03-02 07:24:00,36.2,24.4,29.60,WNW,293,0.0,2.0,62,0.00,,,0.00,Wunderground v.1.13,2013-03-02 12:24:00,
2013-03-02 07:26:00,36.2,24.4,29.60,WNW,293,0.0,2.0,62,0.00,,,0.00,Wunderground v.1.13,2013-03-02 12:26:00,
2013-03-02 07:28:00,36.0,24.6,29.61,NW,315,1.0,6.0,63,0.00,,,0.00,Wunderground v.1.13,2013-03-02 12:28:00,
2013-03-02 07:30:00,36.0,24.6,29.61,NW,315,1.0,6.0,63,0.00,,,0.00,Wunderground v.1.13,2013-03-02 12:30:00,
2013-03-02 07:32:00,36.0,24.6,29.61,NW,315,1.0,6.0,63,0.00,,,0.00,Wunderground v.1.13,2013-03-02 12:32:00,
2013-03-02 07:33:00,27.3,26.1,29.66,NW,319,0.0,0.0,95,0.00,,,0.00,Wunderground v.1.13,2013-03-02 12:33:00,
2013-03-02 07:34:00,35.9,23.7,29.61,NW,315,1.0,3.0,61,0.00,,,0.00,Wunderground v.1.13,2013-03-02 12:34:00,
2013-03-02 07:36:00,35.9,23.7,29.61,NW,315,1.0,3.0,61,0.00,,,0.00,Wunderground v.1.13,2013-03-02 12:36:00,
2013-03-02 07:38:00,35.5,23.0,29.61,NW,315,1.0,5.0,60,0.00,,,0.00,Wunderground v.1.13,2013-03-02 12:38:00,
2013-03-02 07:40:00,35.5,23.0,29.61,NW,315,1.0,5.0,60,0.00,,,0.00,Wunderground v.1.13,2013-03-02 12:40:00,
2013-03-02 07:42:00,35.5,23.0,29.61,NW,315,1.0,5.0,60,0.00,,,0.00,Wunderground v.1.13,2013-03-02 12:42:00,
2013-03-02 07:43:00,27.3,26.1,29.66,NW,319,0.0,0.0,95,0.00,,,0.00,Wunderground v.1.13,2013-03-02 12:43:00,
2013-03-02 07:44:00,35.2,23.1,29.61,NW,315,0.0,2.0,61,0.00,,,0.00,Wunderground v.1.13,2013-03-02 12:44:00,
2013-03-02 07:46:00,35.2,23.1,29.61,NW,315,0.0,2.0,61,0.00,,,0.00,Wunderground v.1.13,2013-03-02 12:46:00,
2013-03-02 07:48:00,35.0,22.9,29.61,NE,45,1.0,3.0,61,0.00,,,0.00,Wunderground v.1.13,2013-03-02 12:48:00,
2013-03-02 07:50:00,35.0,22.9,29.61,NE,45,1.0,3.0,61,0.00,,,0.00,Wunderground v.1.13,2013-03-02 12:50:00,
2013-03-02 07:52:00,35.0,22.9,29.61,NE,45,1.0,3.0,61,0.00,,,0.00,Wunderground v.1.13,2013-03-02 12:52:00,
2013-03-02 07:53:00,27.5,26.3,29.66,NW,319,0.0,0.0,95,0.00,,,0.00,Wunderground v.1.13,2013-03-02 12:53:00,
2013-03-02 07:54:00,34.7,22.2,29.61,NNW,338,0.0,3.0,60,0.00,,,0.00,Wunderground v.1.13,2013-03-02 12:54:00,
2013-03-02 07:56:00,34.7,22.2,29.61,NNW,338,0.0,3.0,60,0.00,,,0.00,Wunderground v.1.13,2013-03-02 12:56:00,
2013-03-02 07:58:00,34.6,23.3,29.61,North,0,0.0,3.0,63,0.00,,,0.00,Wunderground v.1.13,2013-03-02 12:58:00,
2013-03-02 08:00:00,34.6,23.3,29.61,North,0,0.0,3.0,63,0.00,,,0.00,Wunderground v.1.13,2013-03-02 13:00:00,
2013-03-02 08:02:00,34.6,23.3,29.61,North,0,0.0,3.0,63,0.00,,,0.00,Wunderground v.1.13,2013-03-02 13:02:00,
2013-03-02 08:03:00,27.5,26.3,29.66,NW,319,0.0,0.0,95,0.00,,,0.00,Wunderground v.1.13,2013-03-02 13:03:00,
2013-03-02 08:04:00,34.6,24.4,29.61,NNW,338,0.0,2.0,66,0.00,,,0.00,Wunderground v.1.13,2013-03-02 13:04:00,
2013-03-02 08:06:00,34.6,24.4,29.61,NNW,338,0.0,2.0,66,0.00,,,0.00,Wunderground v.1.13,2013-03-02 13:06:00,
2013-03-02 08:08:00,34.4,22.3,29.61,NNW,338,1.0,3.0,61,0.00,,,0.00,Wunderground v.1.13,2013-03-02 13:08:00,
2013-03-02 08:10:00,34.4,22.3,29.61,NNW,338,1.0,3.0,61,0.00,,,0.00,Wunderground v.1.13,2013-03-02 13:10:00,
2013-03-02 08:12:00,34.4,22.3,29.61,NNW,338,1.0,3.0,61,0.00,,,0.00,Wunderground v.1.13,2013-03-02 13:12:00,
2013-03-02 08:13:00,27.5,26.0,29.66,NW,319,0.0,1.0,94,0.00,,,0.00,Wunderground v.1.13,2013-03-02 13:13:00,
2013-03-02 08:14:00,34.3,23.0,29.62,WSW,248,0.0,3.0,63,0.00,,,0.00,Wunderground v.1.13,2013-03-02 13:14:00,
2013-03-02 08:16:00,34.3,23.0,29.62,WSW,248,0.0,3.0,63,0.00,,,0.00,Wunderground v.1.13,2013-03-02 13:16:00,
2013-03-02 08:18:00,27.6,26.1,29.67,NW,319,0.0,1.0,94,0.00,,,0.00,Wunderground v.1.13,2013-03-02 13:18:00,
2013-03-02 08:20:00,34.3,24.5,29.62,WNW,293,0.0,2.0,67,0.00,,,0.00,Wunderground v.1.13,2013-03-02 13:20:00,
2013-03-02 08:22:00,34.3,24.5,29.62,WNW,293,0.0,2.0,67,0.00,,,0.00,Wunderground v.1.13,2013-03-02 13:22:00,
2013-03-02 08:24:00,34.3,24.8,29.62,NNW,338,1.0,3.0,68,0.00,,,0.00,Wunderground v.1.13,2013-03-02 13:24:00,
2013-03-02 08:26:00,34.3,24.8,29.62,NNW,338,1.0,3.0,68,0.00,,,0.00,Wunderground v.1.13,2013-03-02 13:26:00,
2013-03-02 08:28:00,27.8,26.3,29.67,ESE,102,0.0,0.0,94,0.00,,,0.00,Wunderground v.1.13,2013-03-02 13:28:00,
2013-03-02 08:30:00,34.1,22.8,29.62,ENE,68,1.0,5.0,63,0.00,,,0.00,Wunderground v.1.13,2013-03-02 13:30:00,
2013-03-02 08:32:00,34.1,22.8,29.62,ENE,68,1.0,5.0,63,0.00,,,0.00,Wunderground v.1.13,2013-03-02 13:32:00,
2013-03-02 08:34:00,34.1,23.9,29.62,ENE,68,0.0,1.0,66,0.00,,,0.00,Wunderground v.1.13,2013-03-02 13:34:00,
2013-03-02 08:36:00,34.1,23.9,29.62,ENE,68,0.0,1.0,66,0.00,,,0.00,Wunderground v.1.13,2013-03-02 13:36:00,
2013-03-02 08:38:00,27.9,26.1,29.67,ESE,116,0.0,2.0,93,0.00,,,0.00,Wunderground v.1.13,2013-03-02 13:38:00,
2013-03-02 08:40:00,34.3,24.5,29.62,North,0,0.0,3.0,67,0.00,,,0.00,Wunderground v.1.13,2013-03-02 13:40:00,
2013-03-02 08:42:00,34.3,24.5,29.62,North,0,0.0,3.0,67,0.00,,,0.00,Wunderground v.1.13,2013-03-02 13:42:00,
2013-03-02 08:44:00,34.4,24.9,29.62,NNW,338,1.0,2.0,68,0.00,,,0.00,Wunderground v.1.13,2013-03-02 13:44:00,
2013-03-02 08:46:00,34.4,24.9,29.62,NNW,338,1.0,2.0,68,0.00,,,0.00,Wunderground v.1.13,2013-03-02 13:46:00,
2013-03-02 08:48:00,28.5,26.2,29.67,NE,49,0.0,1.0,91,0.00,,,0.00,Wunderground v.1.13,2013-03-02 13:48:00,
2013-03-02 08:50:00,34.4,23.5,29.62,East,90,0.0,2.0,64,0.00,,,0.00,Wunderground v.1.13,2013-03-02 13:50:00,
2013-03-02 08:52:00,34.4,23.5,29.62,East,90,0.0,2.0,64,0.00,,,0.00,Wunderground v.1.13,2013-03-02 13:52:00,
2013-03-02 08:54:00,34.6,24.0,29.62,NW,315,0.0,2.0,65,0.00,,,0.00,Wunderground v.1.13,2013-03-02 13:54:00,
2013-03-02 08:56:00,34.6,24.0,29.62,NW,315,0.0,2.0,65,0.00,,,0.00,Wunderground v.1.13,2013-03-02 13:56:00,
2013-03-02 08:58:00,29.3,27.0,29.67,NE,49,0.0,0.0,91,0.00,,,0.00,Wunderground v.1.13,2013-03-02 13:58:00,
2013-03-02 09:00:00,34.7,22.6,29.61,NW,315,1.0,3.0,61,0.00,,,0.00,Wunderground v.1.13,2013-03-02 14:00:00,
2013-03-02 09:02:00,34.7,22.6,29.61,NW,315,1.0,3.0,61,0.00,,,0.00,Wunderground v.1.13,2013-03-02 14:02:00,
2013-03-02 09:03:00,29.7,27.1,29.66,NNW,347,0.0,0.0,90,0.00,,,0.00,Wunderground v.1.13,2013-03-02 14:03:00,
2013-03-02 09:04:00,34.9,23.2,29.61,SSW,203,0.0,2.0,62,0.00,,,0.00,Wunderground v.1.13,2013-03-02 14:04:00,
2013-03-02 09:06:00,34.9,23.2,29.61,SSW,203,0.0,2.0,62,0.00,,,0.00,Wunderground v.1.13,2013-03-02 14:06:00,
2013-03-02 09:08:00,35.0,23.3,29.61,NW,315,1.0,3.0,62,0.00,,,0.00,Wunderground v.1.13,2013-03-02 14:08:00,
2013-03-02 09:10:00,35.0,23.3,29.61,NW,315,1.0,3.0,62,0.00,,,0.00,Wunderground v.1.13,2013-03-02 14:10:00,
2013-03-02 09:12:00,35.0,23.3,29.61,NW,315,1.0,3.0,62,0.00,,,0.00,Wunderground v.1.13,2013-03-02 14:12:00,
2013-03-02 09:13:00,30.0,26.3,29.66,NNW,347,0.0,1.0,86,0.00,,,0.00,Wunderground v.1.13,2013-03-02 14:13:00,
2013-03-02 09:14:00,35.2,22.7,29.62,WNW,293,0.0,2.0,60,0.00,,,0.00,Wunderground v.1.13,2013-03-02 14:14:00,
2013-03-02 09:16:00,35.2,22.7,29.62,WNW,293,0.0,2.0,60,0.00,,,0.00,Wunderground v.1.13,2013-03-02 14:16:00,
2013-03-02 09:18:00,35.0,23.3,29.62,North,0,0.0,2.0,62,0.00,,,0.00,Wunderground v.1.13,2013-03-02 14:18:00,
2013-03-02 09:20:00,35.0,23.3,29.62,North,0,0.0,2.0,62,0.00,,,0.00,Wunderground v.1.13,2013-03-02 14:20:00,
2013-03-02 09:22:00,35.0,23.3,29.62,North,0,0.0,2.0,62,0.00,,,0.00,Wunderground v.1.13,2013-03-02 14:22:00,
2013-03-02 09:23:00,30.3,26.6,29.66,NW,306,0.0,2.0,86,0.00,,,0.00,Wunderground v.1.13,2013-03-02 14:23:00,
2013-03-02 09:24:00,34.9,23.6,29.62,North,0,0.0,2.0,63,0.00,,,0.00,Wunderground v.1.13,2013-03-02 14:24:00,
2013-03-02 09:26:00,34.9,23.6,29.62,North,0,0.0,2.0,63,0.00,,,0.00,Wunderground v.1.13,2013-03-02 14:26:00,
2013-03-02 09:28:00,34.4,24.2,29.62,North,0,1.0,3.0,66,0.00,,,0.00,Wunderground v.1.13,2013-03-02 14:28:00,
2013-03-02 09:30:00,34.4,24.2,29.62,North,0,1.0,3.0,66,0.00,,,0.00,Wunderground v.1.13,2013-03-02 14:30:00,
2013-03-02 09:32:00,34.4,24.2,29.62,North,0,1.0,3.0,66,0.00,,,0.00,Wunderground v.1.13,2013-03-02 14:32:00,
2013-03-02 09:33:00,30.6,26.1,29.66,NE,56,1.0,5.0,83,0.00,,,0.00,Wunderground v.1.13,2013-03-02 14:33:00,
2013-03-02 09:34:00,34.0,25.2,29.62,North,0,0.0,2.0,70,0.00,,,0.00,Wunderground v.1.13,2013-03-02 14:34:00,
2013-03-02 09:36:00,34.0,25.2,29.62,North,0,0.0,2.0,70,0.00,,,0.00,Wunderground v.1.13,2013-03-02 14:36:00,
2013-03-02 09:38:00,33.2,24.8,29.62,North,0,1.0,3.0,71,0.00,,,0.00,Wunderground v.1.13,2013-03-02 14:38:00,
2013-03-02 09:40:00,33.2,24.8,29.62,North,0,1.0,3.0,71,0.00,,,0.00,Wunderground v.1.13,2013-03-02 14:40:00,
2013-03-02 09:42:00,33.2,24.8,29.62,North,0,1.0,3.0,71,0.00,,,0.00,Wunderground v.1.13,2013-03-02 14:42:00,
2013-03-02 09:43:00,30.7,25.0,29.66,ESE,121,1.0,1.0,79,0.00,,,0.00,Wunderground v.1.13,2013-03-02 14:43:00,
2013-03-02 09:44:00,32.7,26.3,29.63,NW,315,1.0,2.0,77,0.00,,,0.00,Wunderground v.1.13,2013-03-02 14:44:00,
2013-03-02 09:46:00,32.7,26.3,29.63,NW,315,1.0,2.0,77,0.00,,,0.00,Wunderground v.1.13,2013-03-02 14:46:00,
2013-03-02 09:48:00,32.1,26.9,29.63,North,0,0.0,2.0,81,0.00,,,0.00,Wunderground v.1.13,2013-03-02 14:48:00,
2013-03-02 09:50:00,32.1,26.9,29.63,North,0,0.0,2.0,81,0.00,,,0.00,Wunderground v.1.13,2013-03-02 14:50:00,
2013-03-02 09:52:00,32.1,26.9,29.63,North,0,0.0,2.0,81,0.00,,,0.00,Wunderground v.1.13,2013-03-02 14:52:00,
2013-03-02 09:53:00,31.0,25.9,29.66,East,82,0.0,1.0,81,0.00,,,0.00,Wunderground v.1.13,2013-03-02 14:53:00,
2013-03-02 09:54:00,31.6,26.4,29.63,NW,315,0.0,1.0,81,0.00,,,0.00,Wunderground v.1.13,2013-03-02 14:54:00,
2013-03-02 09:56:00,31.6,26.4,29.63,NW,315,0.0,1.0,81,0.00,,,0.00,Wunderground v.1.13,2013-03-02 14:56:00,
2013-03-02 09:58:00,31.3,26.7,29.64,NW,315,0.0,2.0,83,0.00,,,0.00,Wunderground v.1.13,2013-03-02 14:58:00,
2013-03-02 10:00:00,31.3,26.7,29.64,NW,315,0.0,2.0,83,0.00,,,0.00,Wunderground v.1.13,2013-03-02 15:00:00,
2013-03-02 10:02:00,31.3,26.7,29.64,NW,315,0.0,2.0,83,0.00,,,0.00,Wunderground v.1.13,2013-03-02 15:02:00,
2013-03-02 10:03:00,31.5,25.1,29.66,North,0,1.0,6.0,77,0.00,,,0.00,Wunderground v.1.13,2013-03-02 15:03:00,
2013-03-02 10:04:00,31.3,26.7,29.64,NNE,23,0.0,2.0,83,0.00,,,0.00,Wunderground v.1.13,2013-03-02 15:04:00,
2013-03-02 10:06:00,31.3,26.7,29.64,NNE,23,0.0,2.0,83,0.00,,,0.00,Wunderground v.1.13,2013-03-02 15:06:00,
2013-03-02 10:08:00,31.6,25.5,29.66,ENE,69,1.0,3.0,78,0.00,,,0.00,Wunderground v.1.13,2013-03-02 15:08:00,
2013-03-02 10:10:00,31.2,26.6,29.64,NW,315,0.0,1.0,83,0.00,,,0.00,Wunderground v.1.13,2013-03-02 15:10:00,
2013-03-02 10:12:00,31.2,26.6,29.64,NW,315,0.0,1.0,83,0.00,,,0.00,Wunderground v.1.13,2013-03-02 15:12:00,
2013-03-02 10:14:00,31.2,26.6,29.65,North,0,0.0,1.0,83,0.00,,,0.00,Wunderground v.1.13,2013-03-02 15:14:00,
2013-03-02 10:16:00,31.2,26.6,29.65,North,0,0.0,1.0,83,0.00,,,0.00,Wunderground v.1.13,2013-03-02 15:16:00,
2013-03-02 10:18:00,32.2,25.8,29.66,ESE,116,1.0,5.0,77,0.00,,,0.00,Wunderground v.1.13,2013-03-02 15:18:00,
2013-03-02 10:20:00,31.2,26.6,29.65,SE,135,0.0,3.0,83,0.00,,,0.00,Wunderground v.1.13,2013-03-02 15:20:00,
2013-03-02 10:22:00,31.2,26.6,29.65,SE,135,0.0,3.0,83,0.00,,,0.00,Wunderground v.1.13,2013-03-02 15:22:00,
2013-03-02 10:24:00,31.0,25.2,29.65,NNE,23,1.0,5.0,79,0.00,,,0.00,Wunderground v.1.13,2013-03-02 15:24:00,
2013-03-02 10:26:00,31.0,25.2,29.65,NNE,23,1.0,5.0,79,0.00,,,0.00,Wunderground v.1.13,2013-03-02 15:26:00,
2013-03-02 10:28:00,32.8,25.4,29.66,SW,227,1.0,1.0,74,0.00,,,0.00,Wunderground v.1.13,2013-03-02 15:28:00,
2013-03-02 10:30:00,30.9,25.2,29.64,NNW,338,1.0,6.0,79,0.00,,,0.00,Wunderground v.1.13,2013-03-02 15:30:00,
2013-03-02 10:32:00,30.9,25.2,29.64,NNW,338,1.0,6.0,79,0.00,,,0.00,Wunderground v.1.13,2013-03-02 15:32:00,
2013-03-02 10:34:00,30.7,24.7,29.64,NNW,338,1.0,5.0,78,0.00,,,0.00,Wunderground v.1.13,2013-03-02 15:34:00,
2013-03-02 10:36:00,30.7,24.7,29.64,NNW,338,1.0,5.0,78,0.00,,,0.00,Wunderground v.1.13,2013-03-02 15:36:00,
2013-03-02 10:38:00,33.1,25.1,29.66,NNW,328,1.0,1.0,72,0.00,,,0.00,Wunderground v.1.13,2013-03-02 15:38:00,
2013-03-02 10:40:00,30.4,24.7,29.64,North,0,1.0,5.0,79,0.00,,,0.00,Wunderground v.1.13,2013-03-02 15:40:00,
2013-03-02 10:42:00,30.4,24.7,29.64,North,0,1.0,5.0,79,0.00,,,0.00,Wunderground v.1.13,2013-03-02 15:42:00,
2013-03-02 10:44:00,30.3,25.2,29.65,NW,315,0.0,2.0,81,0.00,,,0.00,Wunderground v.1.13,2013-03-02 15:44:00,
2013-03-02 10:46:00,30.3,25.2,29.65,NW,315,0.0,2.0,81,0.00,,,0.00,Wunderground v.1.13,2013-03-02 15:46:00,
2013-03-02 10:48:00,33.8,24.7,29.65,NW,320,0.0,1.0,69,0.00,,,0.00,Wunderground v.1.13,2013-03-02 15:48:00,
2013-03-02 10:50:00,30.0,24.0,29.65,NNW,338,0.0,2.0,78,0.00,,,0.00,Wunderground v.1.13,2013-03-02 15:50:00,
2013-03-02 10:52:00,30.0,24.0,29.65,NNW,338,0.0,2.0,78,0.00,,,0.00,Wunderground v.1.13,2013-03-02 15:52:00,
2013-03-02 10:54:00,29.8,24.4,29.65,NNW,338,1.0,3.0,80,0.00,,,0.00,Wunderground v.1.13,2013-03-02 15:54:00,
2013-03-02 10:56:00,29.8,24.4,29.65,NNW,338,1.0,3.0,80,0.00,,,0.00,Wunderground v.1.13,2013-03-02 15:56:00,
2013-03-02 10:58:00,34.0,25.9,29.65,SW,222,0.0,2.0,72,0.00,,,0.00,Wunderground v.1.13,2013-03-02 15:58:00,
2013-03-02 11:00:00,29.7,23.7,29.66,North,0,1.0,7.0,78,0.00,,,0.00,Wunderground v.1.13,2013-03-02 16:00:00,
2013-03-02 11:02:00,29.7,23.7,29.66,North,0,1.0,7.0,78,0.00,,,0.00,Wunderground v.1.13,2013-03-02 16:02:00,
2013-03-02 11:03:00,34.6,25.1,29.64,ESE,112,0.0,6.0,68,0.00,,,0.00,Wunderground v.1.13,2013-03-02 16:03:00,
2013-03-02 11:04:00,29.5,23.8,29.66,NNW,338,1.0,3.0,79,0.00,,,0.00,Wunderground v.1.13,2013-03-02 16:04:00,
2013-03-02 11:06:00,29.5,23.8,29.66,NNW,338,1.0,3.0,79,0.00,,,0.00,Wunderground v.1.13,2013-03-02 16:06:00,
2013-03-02 11:08:00,29.4,23.4,29.66,NNW,338,0.0,4.0,78,0.00,,,0.00,Wunderground v.1.13,2013-03-02 16:08:00,
2013-03-02 11:10:00,29.4,23.4,29.66,NNW,338,0.0,4.0,78,0.00,,,0.00,Wunderground v.1.13,2013-03-02 16:10:00,
2013-03-02 11:12:00,29.4,23.4,29.66,NNW,338,0.0,4.0,78,0.00,,,0.00,Wunderground v.1.13,2013-03-02 16:12:00,
2013-03-02 11:13:00,34.7,25.2,29.64,East,88,1.0,1.0,68,0.00,,,0.00,Wunderground v.1.13,2013-03-02 16:13:00,
2013-03-02 11:14:00,29.3,23.9,29.67,SSE,158,1.0,3.0,80,0.00,,,0.00,Wunderground v.1.13,2013-03-02 16:14:00,
2013-03-02 11:16:00,29.3,23.9,29.67,SSE,158,1.0,3.0,80,0.00,,,0.00,Wunderground v.1.13,2013-03-02 16:16:00,
2013-03-02 11:18:00,29.1,22.8,29.67,North,0,0.0,2.0,77,0.00,,,0.00,Wunderground v.1.13,2013-03-02 16:18:00,
2013-03-02 11:20:00,29.1,22.8,29.67,North,0,0.0,2.0,77,0.00,,,0.00,Wunderground v.1.13,2013-03-02 16:20:00,
2013-03-02 11:22:00,29.1,22.8,29.67,North,0,0.0,2.0,77,0.00,,,0.00,Wunderground v.1.13,2013-03-02 16:22:00,
2013-03-02 11:23:00,35.9,26.4,29.65,NNW,333,0.0,3.0,68,0.00,,,0.00,Wunderground v.1.13,2013-03-02 16:23:00,
2013-03-02 11:24:00,29.1,23.1,29.67,North,0,0.0,1.0,78,0.00,,,0.00,Wunderground v.1.13,2013-03-02 16:24:00,
2013-03-02 11:26:00,29.1,23.1,29.67,North,0,0.0,1.0,78,0.00,,,0.00,Wunderground v.1.13,2013-03-02 16:26:00,
2013-03-02 11:28:00,29.0,23.3,29.67,North,0,1.0,3.0,79,0.00,,,0.00,Wunderground v.1.13,2013-03-02 16:28:00,
2013-03-02 11:30:00,29.0,23.3,29.67,North,0,1.0,3.0,79,0.00,,,0.00,Wunderground v.1.13,2013-03-02 16:30:00,
2013-03-02 11:32:00,29.0,23.3,29.67,North,0,1.0,3.0,79,0.00,,,0.00,Wunderground v.1.13,2013-03-02 16:32:00,
2013-03-02 11:33:00,36.2,25.9,29.64,North,0,1.0,4.0,66,0.00,,,0.00,Wunderground v.1.13,2013-03-02 16:33:00,
2013-03-02 11:34:00,28.8,23.4,29.67,NW,315,0.0,2.0,80,0.00,,,0.00,Wunderground v.1.13,2013-03-02 16:34:00,
2013-03-02 11:36:00,28.8,23.4,29.67,NW,315,0.0,2.0,80,0.00,,,0.00,Wunderground v.1.13,2013-03-02 16:36:00,
2013-03-02 11:38:00,28.8,22.8,29.67,NNW,338,1.0,5.0,78,0.00,,,0.00,Wunderground v.1.13,2013-03-02 16:38:00,
2013-03-02 11:40:00,28.8,22.8,29.67,NNW,338,1.0,5.0,78,0.00,,,0.00,Wunderground v.1.13,2013-03-02 16:40:00,
2013-03-02 11:42:00,28.8,22.8,29.67,NNW,338,1.0,5.0,78,0.00,,,0.00,Wunderground v.1.13,2013-03-02 16:42:00,
2013-03-02 11:43:00,36.5,26.2,29.64,SW,229,0.0,2.0,66,0.00,,,0.00,Wunderground v.1.13,2013-03-02 16:43:00,
2013-03-02 11:44:00,28.7,23.3,29.68,ENE,68,0.0,2.0,80,0.00,,,0.00,Wunderground v.1.13,2013-03-02 16:44:00,
2013-03-02 11:46:00,28.7,23.3,29.68,ENE,68,0.0,2.0,80,0.00,,,0.00,Wunderground v.1.13,2013-03-02 16:46:00,
2013-03-02 11:48:00,28.7,22.7,29.68,North,0,1.0,4.0,78,0.00,,,0.00,Wunderground v.1.13,2013-03-02 16:48:00,
2013-03-02 11:50:00,28.7,22.7,29.68,North,0,1.0,4.0,78,0.00,,,0.00,Wunderground v.1.13,2013-03-02 16:50:00,
2013-03-02 11:52:00,28.7,22.7,29.68,North,0,1.0,4.0,78,0.00,,,0.00,Wunderground v.1.13,2013-03-02 16:52:00,
2013-03-02 11:53:00,36.5,25.5,29.64,NW,326,1.0,1.0,64,0.00,,,0.00,Wunderground v.1.13,2013-03-02 16:53:00,
2013-03-02 11:54:00,28.5,22.2,29.68,North,0,0.0,1.0,77,0.00,,,0.00,Wunderground v.1.13,2013-03-02 16:54:00,
2013-03-02 11:56:00,28.5,22.2,29.68,North,0,0.0,1.0,77,0.00,,,0.00,Wunderground v.1.13,2013-03-02 16:56:00,
2013-03-02 11:58:00,36.5,27.6,29.64,NE,35,0.0,4.0,70,0.00,,,0.00,Wunderground v.1.13,2013-03-02 16:58:00,
2013-03-02 12:00:00,28.5,22.2,29.68,NNW,338,0.0,3.0,77,0.00,,,0.00,Wunderground v.1.13,2013-03-02 17:00:00,
2013-03-02 12:02:00,28.5,22.2,29.68,NNW,338,0.0,3.0,77,0.00,,,0.00,Wunderground v.1.13,2013-03-02 17:02:00,
2013-03-02 12:04:00,28.4,22.1,29.68,East,90,1.0,5.0,77,0.00,,,0.00,Wunderground v.1.13,2013-03-02 17:04:00,
2013-03-02 12:06:00,28.4,22.1,29.68,East,90,1.0,5.0,77,0.00,,,0.00,Wunderground v.1.13,2013-03-02 17:06:00,
2013-03-02 12:08:00,35.8,24.8,29.64,NNW,342,1.0,1.0,64,0.00,,,0.00,Wunderground v.1.13,2013-03-02 17:08:00,
2013-03-02 12:10:00,28.4,21.8,29.68,SE,135,0.0,2.0,76,0.00,,,0.00,Wunderground v.1.13,2013-03-02 17:10:00,
2013-03-02 12:12:00,28.4,21.8,29.68,SE,135,0.0,2.0,76,0.00,,,0.00,Wunderground v.1.13,2013-03-02 17:12:00,
2013-03-02 12:14:00,28.4,22.4,29.69,NNW,338,0.0,3.0,78,0.00,,,0.00,Wunderground v.1.13,2013-03-02 17:14:00,
2013-03-02 12:16:00,28.4,22.4,29.69,NNW,338,0.0,3.0,78,0.00,,,0.00,Wunderground v.1.13,2013-03-02 17:16:00,
2013-03-02 12:18:00,35.8,24.8,29.65,SSW,200,0.0,4.0,64,0.00,,,0.00,Wunderground v.1.13,2013-03-02 17:18:00,
2013-03-02 12:20:00,28.2,21.6,29.69,SW,225,1.0,3.0,76,0.00,,,0.00,Wunderground v.1.13,2013-03-02 17:20:00,
2013-03-02 12:22:00,28.2,21.6,29.69,SW,225,1.0,3.0,76,0.00,,,0.00,Wunderground v.1.13,2013-03-02 17:22:00,
2013-03-02 12:23:00,36.0,23.8,29.65,North,7,1.0,3.0,61,0.00,,,0.00,Wunderground v.1.13,2013-03-02 17:23:00,
2013-03-02 12:24:00,28.1,21.2,29.69,East,90,0.0,3.0,75,0.00,,,0.00,Wunderground v.1.13,2013-03-02 17:24:00,
2013-03-02 12:26:00,28.1,21.2,29.69,East,90,0.0,3.0,75,0.00,,,0.00,Wunderground v.1.13,2013-03-02 17:26:00,
2013-03-02 12:28:00,35.9,23.7,29.65,NNW,335,1.0,3.0,61,0.00,,,0.00,Wunderground v.1.13,2013-03-02 17:28:00,
2013-03-02 12:30:00,28.1,21.5,29.69,ENE,68,0.0,1.0,76,0.00,,,0.00,Wunderground v.1.13,2013-03-02 17:30:00,
2013-03-02 12:32:00,28.1,21.5,29.69,ENE,68,0.0,1.0,76,0.00,,,0.00,Wunderground v.1.13,2013-03-02 17:32:00,
2013-03-02 12:34:00,27.9,21.6,29.69,NW,315,0.0,5.0,77,0.00,,,0.00,Wunderground v.1.13,2013-03-02 17:34:00,
2013-03-02 12:36:00,27.9,21.6,29.69,NW,315,0.0,5.0,77,0.00,,,0.00,Wunderground v.1.13,2013-03-02 17:36:00,
2013-03-02 12:38:00,37.0,24.8,29.63,NNW,329,1.0,1.0,61,0.00,,,0.00,Wunderground v.1.13,2013-03-02 17:38:00,
2013-03-02 12:40:00,27.8,21.5,29.69,NW,315,0.0,2.0,77,0.00,,,0.00,Wunderground v.1.13,2013-03-02 17:40:00,
2013-03-02 12:42:00,27.8,21.5,29.69,NW,315,0.0,2.0,77,0.00,,,0.00,Wunderground v.1.13,2013-03-02 17:42:00,
2013-03-02 12:44:00,27.8,21.5,29.69,West,270,1.0,5.0,77,0.00,,,0.00,Wunderground v.1.13,2013-03-02 17:44:00,
2013-03-02 12:46:00,27.8,21.5,29.69,West,270,1.0,5.0,77,0.00,,,0.00,Wunderground v.1.13,2013-03-02 17:46:00,
2013-03-02 12:48:00,37.3,23.9,29.62,North,350,1.0,1.0,58,0.00,,,0.00,Wunderground v.1.13,2013-03-02 17:48:00,
2013-03-02 12:50:00,27.6,21.3,29.69,East,90,0.0,2.0,77,0.00,,,0.00,Wunderground v.1.13,2013-03-02 17:50:00,
2013-03-02 12:52:00,27.6,21.3,29.69,East,90,0.0,2.0,77,0.00,,,0.00,Wunderground v.1.13,2013-03-02 17:52:00,
2013-03-02 12:54:00,27.6,21.9,29.69,North,0,1.0,3.0,79,0.00,,,0.00,Wunderground v.1.13,2013-03-02 17:54:00,
2013-03-02 12:56:00,27.6,21.9,29.69,North,0,1.0,3.0,79,0.00,,,0.00,Wunderground v.1.13,2013-03-02 17:56:00,
2013-03-02 12:58:00,36.6,22.8,29.62,NNE,28,1.0,5.0,57,0.00,,,0.00,Wunderground v.1.13,2013-03-02 17:58:00,
2013-03-02 13:00:00,27.5,20.9,29.70,North,0,1.0,3.0,76,0.00,,,0.00,Wunderground v.1.13,2013-03-02 18:00:00,
2013-03-02 13:02:00,27.5,20.9,29.70,North,0,1.0,3.0,76,0.00,,,0.00,Wunderground v.1.13,2013-03-02 18:02:00,
2013-03-02 13:03:00,36.6,23.6,29.62,ESE,107,1.0,1.0,59,0.00,,,0.00,Wunderground v.1.13,2013-03-02 18:03:00,
2013-03-02 13:04:00,27.5,20.9,29.70,NW,315,1.0,2.0,76,0.00,,,0.00,Wunderground v.1.13,2013-03-02 18:04:00,
2013-03-02 13:06:00,27.5,20.9,29.70,NW,315,1.0,2.0,76,0.00,,,0.00,Wunderground v.1.13,2013-03-02 18:06:00,
2013-03-02 13:08:00,27.5,21.2,29.70,North,0,1.0,5.0,77,0.00,,,0.00,Wunderground v.1.13,2013-03-02 18:08:00,
2013-03-02 13:10:00,27.5,21.2,29.70,North,0,1.0,5.0,77,0.00,,,0.00,Wunderground v.1.13,2013-03-02 18:10:00,
2013-03-02 13:12:00,27.5,21.2,29.70,North,0,1.0,5.0,77,0.00,,,0.00,Wunderground v.1.13,2013-03-02 18:12:00,
2013-03-02 13:13:00,37.0,25.6,29.62,North,359,1.0,3.0,63,0.00,,,0.00,Wunderground v.1.13,2013-03-02 18:13:00,
2013-03-02 13:14:00,27.3,21.0,29.71,North,0,1.0,8.0,77,0.00,,,0.00,Wunderground v.1.13,2013-03-02 18:14:00,
2013-03-02 13:16:00,27.3,21.0,29.71,North,0,1.0,8.0,77,0.00,,,0.00,Wunderground v.1.13,2013-03-02 18:16:00,
2013-03-02 13:18:00,27.2,20.6,29.71,NNE,23,1.0,3.0,76,0.00,,,0.00,Wunderground v.1.13,2013-03-02 18:18:00,
2013-03-02 13:20:00,27.2,20.6,29.71,NNE,23,1.0,3.0,76,0.00,,,0.00,Wunderground v.1.13,2013-03-02 18:20:00,
2013-03-02 13:22:00,27.2,20.6,29.71,NNE,23,1.0,3.0,76,0.00,,,0.00,Wunderground v.1.13,2013-03-02 18:22:00,
2013-03-02 13:23:00,36.9,24.3,29.61,North,354,1.0,1.0,60,0.00,,,0.00,Wunderground v.1.13,2013-03-02 18:23:00,
2013-03-02 13:24:00,27.2,20.6,29.71,North,0,1.0,3.0,76,0.00,,,0.00,Wunderground v.1.13,2013-03-02 18:24:00,
2013-03-02 13:26:00,27.2,20.6,29.71,North,0,1.0,3.0,76,0.00,,,0.00,Wunderground v.1.13,2013-03-02 18:26:00,
2013-03-02 13:28:00,36.8,23.8,29.61,NNE,30,1.0,1.0,59,0.00,,,0.00,Wunderground v.1.13,2013-03-02 18:28:00,
2013-03-02 13:30:00,27.0,20.4,29.71,NW,315,1.0,11.0,76,0.00,,,0.00,Wunderground v.1.13,2013-03-02 18:30:00,
2013-03-02 13:32:00,27.0,20.4,29.71,NW,315,1.0,11.0,76,0.00,,,0.00,Wunderground v.1.13,2013-03-02 18:32:00,
2013-03-02 13:34:00,27.0,20.4,29.71,NNE,23,1.0,11.0,76,0.00,,,0.00,Wunderground v.1.13,2013-03-02 18:34:00,
2013-03-02 13:36:00,27.0,20.4,29.71,NNE,23,1.0,11.0,76,0.00,,,0.00,Wunderground v.1.13,2013-03-02 18:36:00,
2013-03-02 13:38:00,36.6,25.9,29.61,North,0,1.0,1.0,65,0.00,,,0.00,Wunderground v.1.13,2013-03-02 18:38:00,
2013-03-02 13:40:00,26.9,20.7,29.71,NW,315,1.0,8.0,77,0.00,,,0.00,Wunderground v.1.13,2013-03-02 18:40:00,
2013-03-02 13:42:00,26.9,20.7,29.71,NW,315,1.0,8.0,77,0.00,,,0.00,Wunderground v.1.13,2013-03-02 18:42:00,
2013-03-02 13:44:00,26.7,20.1,29.71,North,0,1.0,5.0,76,0.00,,,0.00,Wunderground v.1.13,2013-03-02 18:44:00,
2013-03-02 13:46:00,26.7,20.1,29.71,North,0,1.0,5.0,76,0.00,,,0.00,Wunderground v.1.13,2013-03-02 18:46:00,
2013-03-02 13:48:00,36.8,25.0,29.61,NNE,23,1.0,1.0,62,0.00,,,0.00,Wunderground v.1.13,2013-03-02 18:48:00,
2013-03-02 13:50:00,26.6,20.4,29.71,North,0,1.0,3.0,77,0.00,,,0.00,Wunderground v.1.13,2013-03-02 18:50:00,
2013-03-02 13:52:00,26.6,20.4,29.71,North,0,1.0,3.0,77,0.00,,,0.00,Wunderground v.1.13,2013-03-02 18:52:00,
2013-03-02 13:53:00,36.3,22.9,29.61,SSW,196,0.0,1.0,58,0.00,,,0.00,Wunderground v.1.13,2013-03-02 18:53:00,
2013-03-02 13:54:00,26.3,19.8,29.71,North,0,1.0,3.0,76,0.00,,,0.00,Wunderground v.1.13,2013-03-02 18:54:00,
2013-03-02 13:56:00,26.3,19.8,29.71,North,0,1.0,3.0,76,0.00,,,0.00,Wunderground v.1.13,2013-03-02 18:56:00,
2013-03-02 13:58:00,36.0,24.2,29.61,NW,320,1.0,2.0,62,0.00,,,0.00,Wunderground v.1.13,2013-03-02 18:58:00,
2013-03-02 14:00:00,26.1,19.9,29.71,NW,315,1.0,3.0,77,0.00,,,0.00,Wunderground v.1.13,2013-03-02 19:00:00,
2013-03-02 14:02:00,26.1,19.9,29.71,NW,315,1.0,3.0,77,0.00,,,0.00,Wunderground v.1.13,2013-03-02 19:02:00,
2013-03-02 14:04:00,25.8,19.6,29.71,NNW,338,1.0,3.0,77,0.00,,,0.00,Wunderground v.1.13,2013-03-02 19:04:00,
2013-03-02 14:06:00,25.8,19.6,29.71,NNW,338,1.0,3.0,77,0.00,,,0.00,Wunderground v.1.13,2013-03-02 19:06:00,
2013-03-02 14:08:00,35.6,24.6,29.61,WNW,285,1.0,3.0,64,0.00,,,0.00,Wunderground v.1.13,2013-03-02 19:08:00,
2013-03-02 14:10:00,25.7,19.2,29.71,East,90,1.0,4.0,76,0.00,,,0.00,Wunderground v.1.13,2013-03-02 19:10:00,
2013-03-02 14:12:00,25.7,19.2,29.71,East,90,1.0,4.0,76,0.00,,,0.00,Wunderground v.1.13,2013-03-02 19:12:00,
2013-03-02 14:14:00,25.6,20.0,29.70,NW,315,1.0,5.0,79,0.00,,,0.00,Wunderground v.1.13,2013-03-02 19:14:00,
2013-03-02 14:16:00,25.6,20.0,29.70,NW,315,1.0,5.0,79,0.00,,,0.00,Wunderground v.1.13,2013-03-02 19:16:00,
2013-03-02 14:18:00,35.2,21.5,29.61,NE,37,0.0,2.0,57,0.00,,,0.00,Wunderground v.1.13,2013-03-02 19:18:00,
2013-03-02 14:20:00,25.4,19.5,29.70,South,180,1.0,5.0,78,0.00,,,0.00,Wunderground v.1.13,2013-03-02 19:20:00,
2013-03-02 14:22:00,25.4,19.5,29.70,South,180,1.0,5.0,78,0.00,,,0.00,Wunderground v.1.13,2013-03-02 19:22:00,
2013-03-02 14:23:00,34.9,21.6,29.61,NNW,346,0.0,3.0,58,0.00,,,0.00,Wunderground v.1.13,2013-03-02 19:23:00,
2013-03-02 14:24:00,25.3,19.4,29.70,North,0,2.0,6.0,78,0.00,,,0.00,Wunderground v.1.13,2013-03-02 19:24:00,
2013-03-02 14:26:00,25.3,19.4,29.70,North,0,2.0,6.0,78,0.00,,,0.00,Wunderground v.1.13,2013-03-02 19:26:00,
2013-03-02 14:28:00,25.1,18.9,29.72,North,0,2.0,6.0,77,0.00,,,0.00,Wunderground v.1.13,2013-03-02 19:28:00,
2013-03-02 14:30:00,25.1,18.9,29.72,North,0,2.0,6.0,77,0.00,,,0.00,Wunderground v.1.13,2013-03-02 19:30:00,
2013-03-02 14:32:00,25.1,18.9,29.72,North,0,2.0,6.0,77,0.00,,,0.00,Wunderground v.1.13,2013-03-02 19:32:00,
2013-03-02 14:33:00,34.6,24.8,29.61,NNW,343,0.0,3.0,67,0.00,,,0.00,Wunderground v.1.13,2013-03-02 19:33:00,
2013-03-02 14:34:00,25.0,18.8,29.72,NW,315,1.0,5.0,77,0.00,,,0.00,Wunderground v.1.13,2013-03-02 19:34:00,
2013-03-02 14:36:00,25.0,18.8,29.72,NW,315,1.0,5.0,77,0.00,,,0.00,Wunderground v.1.13,2013-03-02 19:36:00,
2013-03-02 14:38:00,34.6,24.4,29.61,NW,326,0.0,2.0,66,0.00,,,0.00,Wunderground v.1.13,2013-03-02 19:38:00,
2013-03-02 14:40:00,24.8,18.6,29.72,NNW,338,2.0,6.0,77,0.00,,,0.00,Wunderground v.1.13,2013-03-02 19:40:00,
2013-03-02 14:42:00,24.8,18.6,29.72,NNW,338,2.0,6.0,77,0.00,,,0.00,Wunderground v.1.13,2013-03-02 19:42:00,
2013-03-02 14:44:00,24.7,18.2,29.72,North,0,2.0,7.0,76,0.00,,,0.00,Wunderground v.1.13,2013-03-02 19:44:00,
2013-03-02 14:46:00,24.7,18.2,29.72,North,0,2.0,7.0,76,0.00,,,0.00,Wunderground v.1.13,2013-03-02 19:46:00,
2013-03-02 14:48:00,34.3,24.1,29.62,NW,320,0.0,3.0,66,0.00,,,0.00,Wunderground v.1.13,2013-03-02 19:48:00,
2013-03-02 14:50:00,24.5,17.7,29.72,NW,315,1.0,5.0,75,0.00,,,0.00,Wunderground v.1.13,2013-03-02 19:50:00,
2013-03-02 14:52:00,24.5,17.7,29.72,NW,315,1.0,5.0,75,0.00,,,0.00,Wunderground v.1.13,2013-03-02 19:52:00,
2013-03-02 14:54:00,24.4,18.2,29.72,NNW,338,2.0,5.0,77,0.00,,,0.00,Wunderground v.1.13,2013-03-02 19:54:00,
2013-03-02 14:56:00,24.4,18.2,29.72,NNW,338,2.0,5.0,77,0.00,,,0.00,Wunderground v.1.13,2013-03-02 19:56:00,
2013-03-02 14:58:00,34.3,23.0,29.62,ESE,109,1.0,3.0,63,0.00,,,0.00,Wunderground v.1.13,2013-03-02 19:58:00,
2013-03-02 15:00:00,24.2,18.0,29.72,North,0,1.0,3.0,77,0.00,,,0.00,Wunderground v.1.13,2013-03-02 20:00:00,
2013-03-02 15:02:00,24.2,18.0,29.72,North,0,1.0,3.0,77,0.00,,,0.00,Wunderground v.1.13,2013-03-02 20:02:00,
2013-03-02 15:04:00,24.2,18.0,29.72,NNW,338,1.0,4.0,77,0.00,,,0.00,Wunderground v.1.13,2013-03-02 20:04:00,
2013-03-02 15:06:00,24.2,18.0,29.72,NNW,338,1.0,4.0,77,0.00,,,0.00,Wunderground v.1.13,2013-03-02 20:06:00,
2013-03-02 15:08:00,34.3,24.1,29.62,North,354,0.0,1.0,66,0.00,,,0.00,Wunderground v.1.13,2013-03-02 20:08:00,
2013-03-02 15:10:00,24.1,17.3,29.72,NNE,23,1.0,6.0,75,0.00,,,0.00,Wunderground v.1.13,2013-03-02 20:10:00,
2013-03-02 15:12:00,24.1,17.3,29.72,NNE,23,1.0,6.0,75,0.00,,,0.00,Wunderground v.1.13,2013-03-02 20:12:00,
2013-03-02 15:14:00,23.9,17.4,29.71,NW,315,1.0,3.0,76,0.00,,,0.00,Wunderground v.1.13,2013-03-02 20:14:00,
2013-03-02 15:16:00,23.9,17.4,29.71,NW,315,1.0,3.0,76,0.00,,,0.00,Wunderground v.1.13,2013-03-02 20:16:00,
2013-03-02 15:18:00,34.4,23.5,29.62,NW,313,0.0,2.0,64,0.00,,,0.00,Wunderground v.1.13,2013-03-02 20:18:00,
2013-03-02 15:20:00,23.8,17.6,29.71,North,0,1.0,3.0,77,0.00,,,0.00,Wunderground v.1.13,2013-03-02 20:20:00,
2013-03-02 15:22:00,23.8,17.6,29.71,North,0,1.0,3.0,77,0.00,,,0.00,Wunderground v.1.13,2013-03-02 20:22:00,
2013-03-02 15:23:00,34.6,25.1,29.62,NW,322,0.0,2.0,68,0.00,,,0.00,Wunderground v.1.13,2013-03-02 20:23:00,
2013-03-02 15:24:00,23.8,17.9,29.71,NE,45,1.0,6.0,78,0.00,,,0.00,Wunderground v.1.13,2013-03-02 20:24:00,
2013-03-02 15:26:00,23.8,17.9,29.71,NE,45,1.0,6.0,78,0.00,,,0.00,Wunderground v.1.13,2013-03-02 20:26:00,
2013-03-02 15:28:00,23.6,17.4,29.72,NNE,23,1.0,3.0,77,0.00,,,0.00,Wunderground v.1.13,2013-03-02 20:28:00,
2013-03-02 15:30:00,23.6,17.4,29.72,NNE,23,1.0,3.0,77,0.00,,,0.00,Wunderground v.1.13,2013-03-02 20:30:00,
2013-03-02 15:32:00,23.6,17.4,29.72,NNE,23,1.0,3.0,77,0.00,,,0.00,Wunderground v.1.13,2013-03-02 20:32:00,
2013-03-02 15:33:00,34.9,23.9,29.61,SSW,196,1.0,1.0,64,0.00,,,0.00,Wunderground v.1.13,2013-03-02 20:33:00,
2013-03-02 15:34:00,23.5,17.3,29.72,NNW,338,1.0,3.0,77,0.00,,,0.00,Wunderground v.1.13,2013-03-02 20:34:00,
2013-03-02 15:36:00,23.5,17.3,29.72,NNW,338,1.0,3.0,77,0.00,,,0.00,Wunderground v.1.13,2013-03-02 20:36:00,
2013-03-02 15:38:00,35.0,24.0,29.61,NW,309,1.0,2.0,64,0.00,,,0.00,Wunderground v.1.13,2013-03-02 20:38:00,
2013-03-02 15:40:00,23.5,17.6,29.72,WNW,293,1.0,3.0,78,0.00,,,0.00,Wunderground v.1.13,2013-03-02 20:40:00,
2013-03-02 15:42:00,23.5,17.6,29.72,WNW,293,1.0,3.0,78,0.00,,,0.00,Wunderground v.1.13,2013-03-02 20:42:00,
2013-03-02 15:44:00,23.3,17.5,29.71,NNW,338,0.0,1.0,78,0.00,,,0.00,Wunderground v.1.13,2013-03-02 20:44:00,
2013-03-02 15:46:00,23.3,17.5,29.71,NNW,338,0.0,1.0,78,0.00,,,0.00,Wunderground v.1.13,2013-03-02 20:46:00,
2013-03-02 15:48:00,35.2,23.5,29.62,North,3,0.0,2.0,62,0.00,,,0.00,Wunderground v.1.13,2013-03-02 20:48:00,
2013-03-02 15:50:00,23.3,17.5,29.71,NNW,338,1.0,2.0,78,0.00,,,0.00,Wunderground v.1.13,2013-03-02 20:50:00,
2013-03-02 15:52:00,23.3,17.5,29.71,NNW,338,1.0,2.0,78,0.00,,,0.00,Wunderground v.1.13,2013-03-02 20:52:00,
2013-03-02 15:54:00,23.2,17.9,29.71,SE,135,1.0,3.0,80,0.00,,,0.00,Wunderground v.1.13,2013-03-02 20:54:00,
2013-03-02 15:56:00,23.2,17.9,29.71,SE,135,1.0,3.0,80,0.00,,,0.00,Wunderground v.1.13,2013-03-02 20:56:00,
2013-03-02 15:58:00,34.6,24.8,29.62,NNW,346,1.0,1.0,67,0.00,,,0.00,Wunderground v.1.13,2013-03-02 20:58:00,
2013-03-02 16:00:00,23.2,17.4,29.71,SSE,158,1.0,3.0,78,0.00,,,0.00,Wunderground v.1.13,2013-03-02 21:00:00,
2013-03-02 16:02:00,23.2,17.4,29.71,SSE,158,1.0,3.0,78,0.00,,,0.00,Wunderground v.1.13,2013-03-02 21:02:00,
2013-03-02 16:04:00,23.2,17.9,29.71,WNW,293,1.0,2.0,80,0.00,,,0.00,Wunderground v.1.13,2013-03-02 21:04:00,
2013-03-02 16:06:00,23.2,17.9,29.71,WNW,293,1.0,2.0,80,0.00,,,0.00,Wunderground v.1.13,2013-03-02 21:06:00,
2013-03-02 16:08:00,33.5,25.1,29.62,North,7,1.0,2.0,71,0.00,,,0.00,Wunderground v.1.13,2013-03-02 21:08:00,
2013-03-02 16:10:00,23.0,17.5,29.71,NNW,338,1.0,6.0,79,0.00,,,0.00,Wunderground v.1.13,2013-03-02 21:10:00,
2013-03-02 16:12:00,23.0,17.5,29.71,NNW,338,1.0,6.0,79,0.00,,,0.00,Wunderground v.1.13,2013-03-02 21:12:00,
2013-03-02 16:14:00,23.0,17.7,29.70,North,0,1.0,3.0,80,0.00,,,0.00,Wunderground v.1.13,2013-03-02 21:14:00,
2013-03-02 16:16:00,23.0,17.7,29.70,North,0,1.0,3.0,80,0.00,,,0.00,Wunderground v.1.13,2013-03-02 21:16:00,
2013-03-02 16:18:00,32.2,26.7,29.63,North,11,1.0,1.0,80,0.00,,,0.00,Wunderground v.1.13,2013-03-02 21:18:00,
2013-03-02 16:20:00,22.9,17.7,29.70,North,0,1.0,5.0,80,0.00,,,0.00,Wunderground v.1.13,2013-03-02 21:20:00,
2013-03-02 16:22:00,22.9,17.7,29.70,North,0,1.0,5.0,80,0.00,,,0.00,Wunderground v.1.13,2013-03-02 21:22:00,
2013-03-02 16:24:00,22.9,17.4,29.70,North,0,1.0,8.0,79,0.00,,,0.00,Wunderground v.1.13,2013-03-02 21:24:00,
2013-03-02 16:26:00,22.9,17.4,29.70,North,0,1.0,8.0,79,0.00,,,0.00,Wunderground v.1.13,2013-03-02 21:26:00,
2013-03-02 16:28:00,31.5,26.6,29.63,NW,311,0.0,1.0,82,0.00,,,0.00,Wunderground v.1.13,2013-03-02 21:28:00,
2013-03-02 16:30:00,22.9,17.1,29.70,NNW,338,1.0,4.0,78,0.00,,,0.00,Wunderground v.1.13,2013-03-02 21:30:00,
2013-03-02 16:32:00,22.9,17.1,29.70,NNW,338,1.0,4.0,78,0.00,,,0.00,Wunderground v.1.13,2013-03-02 21:32:00,
2013-03-02 16:34:00,22.9,17.1,29.70,North,0,1.0,4.0,78,0.00,,,0.00,Wunderground v.1.13,2013-03-02 21:34:00,
2013-03-02 16:36:00,22.9,17.1,29.70,North,0,1.0,4.0,78,0.00,,,0.00,Wunderground v.1.13,2013-03-02 21:36:00,
2013-03-02 16:38:00,31.2,26.6,29.64,North,6,0.0,2.0,83,0.00,,,0.00,Wunderground v.1.13,2013-03-02 21:38:00,
2013-03-02 16:40:00,22.7,16.9,29.70,NNW,338,1.0,6.0,78,0.00,,,0.00,Wunderground v.1.13,2013-03-02 21:40:00,
2013-03-02 16:42:00,22.7,16.9,29.70,NNW,338,1.0,6.0,78,0.00,,,0.00,Wunderground v.1.13,2013-03-02 21:42:00,
2013-03-02 16:44:00,22.7,16.6,29.70,North,0,1.0,7.0,77,0.00,,,0.00,Wunderground v.1.13,2013-03-02 21:44:00,
2013-03-02 16:46:00,22.7,16.6,29.70,North,0,1.0,7.0,77,0.00,,,0.00,Wunderground v.1.13,2013-03-02 21:46:00,
2013-03-02 16:48:00,31.2,26.3,29.65,West,267,0.0,1.0,82,0.00,,,0.00,Wunderground v.1.13,2013-03-02 21:48:00,
2013-03-02 16:50:00,22.7,16.3,29.70,NNW,338,1.0,3.0,76,0.00,,,0.00,Wunderground v.1.13,2013-03-02 21:50:00,
2013-03-02 16:52:00,22.7,16.3,29.70,NNW,338,1.0,3.0,76,0.00,,,0.00,Wunderground v.1.13,2013-03-02 21:52:00,
2013-03-02 16:54:00,22.5,16.7,29.70,SE,135,1.0,3.0,78,0.00,,,0.00,Wunderground v.1.13,2013-03-02 21:54:00,
2013-03-02 16:56:00,22.5,16.7,29.70,SE,135,1.0,3.0,78,0.00,,,0.00,Wunderground v.1.13,2013-03-02 21:56:00,
2013-03-02 16:58:00,30.9,25.5,29.65,NNW,343,1.0,5.0,80,0.00,,,0.00,Wunderground v.1.13,2013-03-02 21:58:00,
2013-03-02 17:00:00,22.5,16.4,29.70,North,0,1.0,3.0,77,0.00,,,0.00,Wunderground v.1.13,2013-03-02 22:00:00,
2013-03-02 17:02:00,22.5,16.4,29.70,North,0,1.0,3.0,77,0.00,,,0.00,Wunderground v.1.13,2013-03-02 22:02:00,
2013-03-02 17:03:00,30.7,24.7,29.64,North,359,1.0,1.0,78,0.00,,,0.00,Wunderground v.1.13,2013-03-02 22:03:00,
2013-03-02 17:04:00,22.4,16.6,29.70,NNW,338,1.0,3.0,78,0.00,,,0.00,Wunderground v.1.13,2013-03-02 22:04:00,
2013-03-02 17:06:00,22.4,16.6,29.70,NNW,338,1.0,3.0,78,0.00,,,0.00,Wunderground v.1.13,2013-03-02 22:06:00,
2013-03-02 17:08:00,22.4,16.3,29.70,North,0,1.0,3.0,77,0.00,,,0.00,Wunderground v.1.13,2013-03-02 22:08:00,
2013-03-02 17:10:00,22.4,16.3,29.70,North,0,1.0,3.0,77,0.00,,,0.00,Wunderground v.1.13,2013-03-02 22:10:00,
2013-03-02 17:12:00,22.4,16.3,29.70,North,0,1.0,3.0,77,0.00,,,0.00,Wunderground v.1.13,2013-03-02 22:12:00,
2013-03-02 17:13:00,30.3,24.9,29.64,NW,326,1.0,1.0,80,0.00,,,0.00,Wunderground v.1.13,2013-03-02 22:13:00,
2013-03-02 17:14:00,22.2,16.4,29.70,NW,315,1.0,2.0,78,0.00,,,0.00,Wunderground v.1.13,2013-03-02 22:14:00,
2013-03-02 17:16:00,22.2,16.4,29.70,NW,315,1.0,2.0,78,0.00,,,0.00,Wunderground v.1.13,2013-03-02 22:16:00,
2013-03-02 17:18:00,22.2,16.7,29.70,NNW,338,1.0,2.0,79,0.00,,,0.00,Wunderground v.1.13,2013-03-02 22:18:00,
2013-03-02 17:20:00,22.2,16.7,29.70,NNW,338,1.0,2.0,79,0.00,,,0.00,Wunderground v.1.13,2013-03-02 22:20:00,
2013-03-02 17:22:00,22.2,16.7,29.70,NNW,338,1.0,2.0,79,0.00,,,0.00,Wunderground v.1.13,2013-03-02 22:22:00,
2013-03-02 17:23:00,30.0,24.0,29.65,NNW,337,0.0,2.0,78,0.00,,,0.00,Wunderground v.1.13,2013-03-02 22:23:00,
2013-03-02 17:24:00,22.1,16.3,29.70,NNE,23,1.0,5.0,78,0.00,,,0.00,Wunderground v.1.13,2013-03-02 22:24:00,
2013-03-02 17:26:00,22.1,16.3,29.70,NNE,23,1.0,5.0,78,0.00,,,0.00,Wunderground v.1.13,2013-03-02 22:26:00,
2013-03-02 17:28:00,29.8,23.8,29.65,East,95,1.0,3.0,78,0.00,,,0.00,Wunderground v.1.13,2013-03-02 22:28:00,
2013-03-02 17:30:00,22.1,16.3,29.70,North,0,1.0,2.0,78,0.00,,,0.00,Wunderground v.1.13,2013-03-02 22:30:00,
2013-03-02 17:32:00,22.1,16.3,29.70,North,0,1.0,2.0,78,0.00,,,0.00,Wunderground v.1.13,2013-03-02 22:32:00,
2013-03-02 17:34:00,21.9,16.1,29.70,North,0,1.0,6.0,78,0.00,,,0.00,Wunderground v.1.13,2013-03-02 22:34:00,
2013-03-02 17:36:00,21.9,16.1,29.70,North,0,1.0,6.0,78,0.00,,,0.00,Wunderground v.1.13,2013-03-02 22:36:00,
2013-03-02 17:38:00,29.4,23.7,29.66,North,359,1.0,3.0,79,0.00,,,0.00,Wunderground v.1.13,2013-03-02 22:38:00,
2013-03-02 17:40:00,21.9,16.4,29.70,NW,315,1.0,3.0,79,0.00,,,0.00,Wunderground v.1.13,2013-03-02 22:40:00,
2013-03-02 17:42:00,21.9,16.4,29.70,NW,315,1.0,3.0,79,0.00,,,0.00,Wunderground v.1.13,2013-03-02 22:42:00,
2013-03-02 17:44:00,21.9,16.4,29.70,NNW,338,1.0,4.0,79,0.00,,,0.00,Wunderground v.1.13,2013-03-02 22:44:00,
2013-03-02 17:46:00,21.9,16.4,29.70,NNW,338,1.0,4.0,79,0.00,,,0.00,Wunderground v.1.13,2013-03-02 22:46:00,
2013-03-02 17:48:00,29.3,23.9,29.67,North,0,1.0,3.0,80,0.00,,,0.00,Wunderground v.1.13,2013-03-02 22:48:00,
2013-03-02 17:50:00,21.8,16.3,29.70,NW,315,0.0,2.0,79,0.00,,,0.00,Wunderground v.1.13,2013-03-02 22:50:00,
2013-03-02 17:52:00,21.8,16.3,29.70,NW,315,0.0,2.0,79,0.00,,,0.00,Wunderground v.1.13,2013-03-02 22:52:00,
2013-03-02 17:53:00,29.1,23.1,29.67,WSW,253,0.0,2.0,78,0.00,,,0.00,Wunderground v.1.13,2013-03-02 22:53:00,
2013-03-02 17:54:00,21.8,16.3,29.70,North,0,1.0,2.0,79,0.00,,,0.00,Wunderground v.1.13,2013-03-02 22:54:00,
2013-03-02 17:56:00,21.8,16.3,29.70,North,0,1.0,2.0,79,0.00,,,0.00,Wunderground v.1.13,2013-03-02 22:56:00,
2013-03-02 17:58:00,21.6,16.4,29.70,North,0,1.0,2.0,80,0.00,,,0.00,Wunderground v.1.13,2013-03-02 22:58:00,
2013-03-02 18:00:00,21.6,16.4,29.70,North,0,1.0,2.0,80,0.00,,,0.00,Wunderground v.1.13,2013-03-02 23:00:00,
2013-03-02 18:02:00,21.6,16.4,29.70,North,0,1.0,2.0,80,0.00,,,0.00,Wunderground v.1.13,2013-03-02 23:02:00,
2013-03-02 18:03:00,29.0,23.0,29.67,NW,312,1.0,1.0,78,0.00,,,0.00,Wunderground v.1.13,2013-03-02 23:03:00,
2013-03-02 18:04:00,21.6,16.4,29.70,North,0,1.0,3.0,80,0.00,,,0.00,Wunderground v.1.13,2013-03-02 23:04:00,
2013-03-02 18:06:00,21.6,16.4,29.70,North,0,1.0,3.0,80,0.00,,,0.00,Wunderground v.1.13,2013-03-02 23:06:00,
2013-03-02 18:08:00,28.8,22.8,29.67,NNW,329,0.0,2.0,78,0.00,,,0.00,Wunderground v.1.13,2013-03-02 23:08:00,
2013-03-02 18:10:00,21.6,16.7,29.70,North,0,1.0,3.0,81,0.00,,,0.00,Wunderground v.1.13,2013-03-02 23:10:00,
2013-03-02 18:12:00,21.6,16.7,29.70,North,0,1.0,3.0,81,0.00,,,0.00,Wunderground v.1.13,2013-03-02 23:12:00,
2013-03-02 18:14:00,21.4,16.2,29.69,North,0,1.0,3.0,80,0.00,,,0.00,Wunderground v.1.13,2013-03-02 23:14:00,
2013-03-02 18:16:00,21.4,16.2,29.69,North,0,1.0,3.0,80,0.00,,,0.00,Wunderground v.1.13,2013-03-02 23:16:00,
2013-03-02 18:18:00,28.7,22.7,29.68,WNW,299,1.0,2.0,78,0.00,,,0.00,Wunderground v.1.13,2013-03-02 23:18:00,
2013-03-02 18:20:00,21.4,15.9,29.69,North,0,1.0,3.0,79,0.00,,,0.00,Wunderground v.1.13,2013-03-02 23:20:00,
2013-03-02 18:22:00,21.4,15.9,29.69,North,0,1.0,3.0,79,0.00,,,0.00,Wunderground v.1.13,2013-03-02 23:22:00,
2013-03-02 18:24:00,21.3,16.1,29.69,NNW,338,0.0,3.0,80,0.00,,,0.00,Wunderground v.1.13,2013-03-02 23:24:00,
2013-03-02 18:26:00,21.3,16.1,29.69,NNW,338,0.0,3.0,80,0.00,,,0.00,Wunderground v.1.13,2013-03-02 23:26:00,
2013-03-02 18:28:00,28.5,22.2,29.68,North,0,1.0,1.0,77,0.00,,,0.00,Wunderground v.1.13,2013-03-02 23:28:00,
2013-03-02 18:30:00,21.3,15.8,29.69,NNW,338,1.0,2.0,79,0.00,,,0.00,Wunderground v.1.13,2013-03-02 23:30:00,
2013-03-02 18:32:00,21.3,15.8,29.69,NNW,338,1.0,2.0,79,0.00,,,0.00,Wunderground v.1.13,2013-03-02 23:32:00,
2013-03-02 18:34:00,21.3,16.1,29.69,NE,45,0.0,4.0,80,0.00,,,0.00,Wunderground v.1.13,2013-03-02 23:34:00,
2013-03-02 18:36:00,21.3,16.1,29.69,NE,45,0.0,4.0,80,0.00,,,0.00,Wunderground v.1.13,2013-03-02 23:36:00,
2013-03-02 18:38:00,28.4,22.1,29.68,SE,134,1.0,1.0,77,0.00,,,0.00,Wunderground v.1.13,2013-03-02 23:38:00,
2013-03-02 18:40:00,21.1,15.9,29.69,NNW,338,0.0,2.0,80,0.00,,,0.00,Wunderground v.1.13,2013-03-02 23:40:00,
2013-03-02 18:42:00,21.1,15.9,29.69,NNW,338,0.0,2.0,80,0.00,,,0.00,Wunderground v.1.13,2013-03-02 23:42:00,
2013-03-02 18:44:00,21.1,15.9,29.70,North,0,1.0,2.0,80,0.00,,,0.00,Wunderground v.1.13,2013-03-02 23:44:00,
2013-03-02 18:46:00,21.1,15.9,29.70,North,0,1.0,2.0,80,0.00,,,0.00,Wunderground v.1.13,2013-03-02 23:46:00,
2013-03-02 18:48:00,28.2,21.3,29.69,NW,323,0.0,3.0,75,0.00,,,0.00,Wunderground v.1.13,2013-03-02 23:48:00,
2013-03-02 18:50:00,21.0,15.8,29.70,NNW,338,1.0,2.0,80,0.00,,,0.00,Wunderground v.1.13,2013-03-02 23:50:00,
2013-03-02 18:52:00,21.0,15.8,29.70,NNW,338,1.0,2.0,80,0.00,,,0.00,Wunderground v.1.13,2013-03-02 23:52:00,
2013-03-02 18:54:00,21.0,16.1,29.70,North,0,1.0,2.0,81,0.00,,,0.00,Wunderground v.1.13,2013-03-02 23:54:00,
2013-03-02 18:56:00,21.0,16.1,29.70,North,0,1.0,2.0,81,0.00,,,0.00,Wunderground v.1.13,2013-03-02 23:56:00,
2013-03-02 18:58:00,28.1,21.8,29.69,ENE,68,0.0,3.0,77,0.00,,,0.00,Wunderground v.1.13,2013-03-02 23:58:00,
2013-03-02 19:00:00,21.0,15.8,29.70,WNW,293,0.0,2.0,80,0.00,,,0.00,Wunderground v.1.13,2013-03-03 00:00:00,
2013-03-02 19:02:00,21.0,15.8,29.70,WNW,293,0.0,2.0,80,0.00,,,0.00,Wunderground v.1.13,2013-03-03 00:02:00,
2013-03-02 19:03:00,27.9,21.6,29.69,NW,305,0.0,1.0,77,0.00,,,0.00,Wunderground v.1.13,2013-03-03 00:03:00,
2013-03-02 19:04:00,21.0,16.1,29.70,WNW,293,1.0,2.0,81,0.00,,,0.00,Wunderground v.1.13,2013-03-03 00:04:00,
2013-03-02 19:06:00,21.0,16.1,29.70,WNW,293,1.0,2.0,81,0.00,,,0.00,Wunderground v.1.13,2013-03-03 00:06:00,
2013-03-02 19:08:00,20.8,15.9,29.70,NNW,338,0.0,3.0,81,0.00,,,0.00,Wunderground v.1.13,2013-03-03 00:08:00,
2013-03-02 19:10:00,20.8,15.9,29.70,NNW,338,0.0,3.0,81,0.00,,,0.00,Wunderground v.1.13,2013-03-03 00:10:00,
2013-03-02 19:12:00,20.8,15.9,29.70,NNW,338,0.0,3.0,81,0.00,,,0.00,Wunderground v.1.13,2013-03-03 00:12:00,
2013-03-02 19:13:00,27.8,21.5,29.69,WNW,284,0.0,2.0,77,0.00,,,0.00,Wunderground v.1.13,2013-03-03 00:13:00,
2013-03-02 19:14:00,20.8,15.9,29.71,North,0,1.0,8.0,81,0.00,,,0.00,Wunderground v.1.13,2013-03-03 00:14:00,
2013-03-02 19:16:00,20.8,15.9,29.71,North,0,1.0,8.0,81,0.00,,,0.00,Wunderground v.1.13,2013-03-03 00:16:00,
2013-03-02 19:18:00,20.6,15.7,29.71,SW,225,1.0,5.0,81,0.00,,,0.00,Wunderground v.1.13,2013-03-03 00:18:00,
2013-03-02 19:20:00,20.6,15.7,29.71,SW,225,1.0,5.0,81,0.00,,,0.00,Wunderground v.1.13,2013-03-03 00:20:00,
2013-03-02 19:22:00,20.6,15.7,29.71,SW,225,1.0,5.0,81,0.00,,,0.00,Wunderground v.1.13,2013-03-03 00:22:00,
2013-03-02 19:23:00,27.6,21.6,29.70,NNE,21,1.0,1.0,78,0.00,,,0.00,Wunderground v.1.13,2013-03-03 00:23:00,
2013-03-02 19:24:00,20.6,15.7,29.71,North,0,0.0,2.0,81,0.00,,,0.00,Wunderground v.1.13,2013-03-03 00:24:00,
2013-03-02 19:26:00,20.6,15.7,29.71,North,0,0.0,2.0,81,0.00,,,0.00,Wunderground v.1.13,2013-03-03 00:26:00,
2013-03-02 19:28:00,27.6,21.3,29.70,SSE,157,1.0,1.0,77,0.00,,,0.00,Wunderground v.1.13,2013-03-03 00:28:00,
2013-03-02 19:30:00,20.6,15.7,29.71,NNW,338,1.0,3.0,81,0.00,,,0.00,Wunderground v.1.13,2013-03-03 00:30:00,
2013-03-02 19:32:00,20.6,15.7,29.71,NNW,338,1.0,3.0,81,0.00,,,0.00,Wunderground v.1.13,2013-03-03 00:32:00,
2013-03-02 19:34:00,20.5,15.6,29.71,NNW,338,0.0,1.0,81,0.00,,,0.00,Wunderground v.1.13,2013-03-03 00:34:00,
2013-03-02 19:36:00,20.5,15.6,29.71,NNW,338,0.0,1.0,81,0.00,,,0.00,Wunderground v.1.13,2013-03-03 00:36:00,
2013-03-02 19:38:00,27.5,21.2,29.70,North,350,1.0,1.0,77,0.00,,,0.00,Wunderground v.1.13,2013-03-03 00:38:00,
2013-03-02 19:40:00,20.5,15.6,29.71,NNW,338,0.0,2.0,81,0.00,,,0.00,Wunderground v.1.13,2013-03-03 00:40:00,
2013-03-02 19:42:00,20.5,15.6,29.71,NNW,338,0.0,2.0,81,0.00,,,0.00,Wunderground v.1.13,2013-03-03 00:42:00,
2013-03-02 19:44:00,20.5,15.6,29.70,NNW,338,1.0,2.0,81,0.00,,,0.00,Wunderground v.1.13,2013-03-03 00:44:00,
2013-03-02 19:46:00,20.5,15.6,29.70,NNW,338,1.0,2.0,81,0.00,,,0.00,Wunderground v.1.13,2013-03-03 00:46:00,
2013-03-02 19:48:00,27.3,20.7,29.71,NNE,18,1.0,8.0,76,0.00,,,0.00,Wunderground v.1.13,2013-03-03 00:48:00,
2013-03-02 19:50:00,20.5,15.6,29.70,North,0,1.0,2.0,81,0.00,,,0.00,Wunderground v.1.13,2013-03-03 00:50:00,
2013-03-02 19:52:00,20.5,15.6,29.70,North,0,1.0,2.0,81,0.00,,,0.00,Wunderground v.1.13,2013-03-03 00:52:00,
2013-03-02 19:54:00,20.5,15.9,29.70,North,0,1.0,6.0,82,0.00,,,0.00,Wunderground v.1.13,2013-03-03 00:54:00,
2013-03-02 19:56:00,20.5,15.9,29.70,North,0,1.0,6.0,82,0.00,,,0.00,Wunderground v.1.13,2013-03-03 00:56:00,
2013-03-02 19:58:00,27.0,20.7,29.71,ESE,120,1.0,3.0,77,0.00,,,0.00,Wunderground v.1.13,2013-03-03 00:58:00,
2013-03-02 20:00:00,20.5,15.3,29.70,North,0,1.0,5.0,80,0.00,,,0.00,Wunderground v.1.13,2013-03-03 01:00:00,
2013-03-02 20:02:00,20.5,15.3,29.70,North,0,1.0,5.0,80,0.00,,,0.00,Wunderground v.1.13,2013-03-03 01:02:00,
2013-03-02 20:03:00,27.0,20.4,29.71,NNE,14,1.0,1.0,76,0.00,,,0.00,Wunderground v.1.13,2013-03-03 01:03:00,
2013-03-02 20:04:00,20.5,15.3,29.70,NNW,338,0.0,3.0,80,0.00,,,0.00,Wunderground v.1.13,2013-03-03 01:04:00,
2013-03-02 20:06:00,20.5,15.3,29.70,NNW,338,0.0,3.0,80,0.00,,,0.00,Wunderground v.1.13,2013-03-03 01:06:00,
2013-03-02 20:08:00,26.9,20.3,29.71,North,0,1.0,11.0,76,0.00,,,0.00,Wunderground v.1.13,2013-03-03 01:08:00,
2013-03-02 20:10:00,20.3,15.4,29.70,NW,315,0.0,3.0,81,0.00,,,0.00,Wunderground v.1.13,2013-03-03 01:10:00,
2013-03-02 20:12:00,20.3,15.4,29.70,NW,315,0.0,3.0,81,0.00,,,0.00,Wunderground v.1.13,2013-03-03 01:12:00,
2013-03-02 20:14:00,20.3,15.4,29.71,NW,315,0.0,2.0,81,0.00,,,0.00,Wunderground v.1.13,2013-03-03 01:14:00,
2013-03-02 20:16:00,20.3,15.4,29.71,NW,315,0.0,2.0,81,0.00,,,0.00,Wunderground v.1.13,2013-03-03 01:16:00,
2013-03-02 20:18:00,26.6,20.1,29.71,North,6,1.0,1.0,76,0.00,,,0.00,Wunderground v.1.13,2013-03-03 01:18:00,
2013-03-02 20:20:00,20.3,15.4,29.71,North,0,0.0,1.0,81,0.00,,,0.00,Wunderground v.1.13,2013-03-03 01:20:00,
2013-03-02 20:22:00,20.3,15.4,29.71,North,0,0.0,1.0,81,0.00,,,0.00,Wunderground v.1.13,2013-03-03 01:22:00,
2013-03-02 20:24:00,20.2,15.3,29.71,NNW,338,0.0,2.0,81,0.00,,,0.00,Wunderground v.1.13,2013-03-03 01:24:00,
2013-03-02 20:26:00,20.2,15.3,29.71,NNW,338,0.0,2.0,81,0.00,,,0.00,Wunderground v.1.13,2013-03-03 01:26:00,
2013-03-02 20:28:00,26.1,19.9,29.71,East,83,1.0,3.0,77,0.00,,,0.00,Wunderground v.1.13,2013-03-03 01:28:00,
2013-03-02 20:30:00,20.2,15.3,29.71,NNW,338,0.0,2.0,81,0.00,,,0.00,Wunderground v.1.13,2013-03-03 01:30:00,
2013-03-02 20:32:00,20.2,15.3,29.71,NNW,338,0.0,2.0,81,0.00,,,0.00,Wunderground v.1.13,2013-03-03 01:32:00,
2013-03-02 20:34:00,20.2,15.3,29.71,NNE,23,0.0,2.0,81,0.00,,,0.00,Wunderground v.1.13,2013-03-03 01:34:00,
2013-03-02 20:36:00,20.2,15.3,29.71,NNE,23,0.0,2.0,81,0.00,,,0.00,Wunderground v.1.13,2013-03-03 01:36:00,
2013-03-02 20:38:00,25.8,19.6,29.71,East,86,1.0,3.0,77,0.00,,,0.00,Wunderground v.1.13,2013-03-03 01:38:00,
2013-03-02 20:40:00,20.0,15.4,29.71,NNW,338,1.0,3.0,82,0.00,,,0.00,Wunderground v.1.13,2013-03-03 01:40:00,
2013-03-02 20:42:00,20.0,15.4,29.71,NNW,338,1.0,3.0,82,0.00,,,0.00,Wunderground v.1.13,2013-03-03 01:42:00,
2013-03-02 20:43:00,25.6,19.4,29.71,NW,309,1.0,4.0,77,0.00,,,0.00,Wunderground v.1.13,2013-03-03 01:43:00,
2013-03-02 20:44:00,20.0,14.8,29.71,North,0,0.0,3.0,80,0.00,,,0.00,Wunderground v.1.13,2013-03-03 01:44:00,
2013-03-02 20:46:00,20.0,14.8,29.71,North,0,0.0,3.0,80,0.00,,,0.00,Wunderground v.1.13,2013-03-03 01:46:00,
2013-03-02 20:48:00,25.4,19.2,29.70,South,176,1.0,5.0,77,0.00,,,0.00,Wunderground v.1.13,2013-03-03 01:48:00,
2013-03-02 20:50:00,20.0,15.1,29.71,NNW,338,0.0,2.0,81,0.00,,,0.00,Wunderground v.1.13,2013-03-03 01:50:00,
2013-03-02 20:52:00,20.0,15.1,29.71,NNW,338,0.0,2.0,81,0.00,,,0.00,Wunderground v.1.13,2013-03-03 01:52:00,
2013-03-02 20:54:00,20.0,15.1,29.71,North,0,1.0,5.0,81,0.00,,,0.00,Wunderground v.1.13,2013-03-03 01:54:00,
2013-03-02 20:56:00,20.0,15.1,29.71,North,0,1.0,5.0,81,0.00,,,0.00,Wunderground v.1.13,2013-03-03 01:56:00,
2013-03-02 20:58:00,25.1,18.9,29.70,North,0,1.0,6.0,77,0.00,,,0.00,Wunderground v.1.13,2013-03-03 01:58:00,
2013-03-02 21:00:00,20.0,15.1,29.70,NNW,338,1.0,7.0,81,0.00,,,0.00,Wunderground v.1.13,2013-03-03 02:00:00,
2013-03-02 21:02:00,20.0,15.1,29.70,NNW,338,1.0,7.0,81,0.00,,,0.00,Wunderground v.1.13,2013-03-03 02:02:00,
2013-03-02 21:03:00,25.0,18.8,29.72,NW,320,2.0,2.0,77,0.00,,,0.00,Wunderground v.1.13,2013-03-03 02:03:00,
2013-03-02 21:04:00,20.0,15.1,29.70,NNW,338,1.0,7.0,81,0.00,,,0.00,Wunderground v.1.13,2013-03-03 02:04:00,
2013-03-02 21:06:00,20.0,15.1,29.70,NNW,338,1.0,7.0,81,0.00,,,0.00,Wunderground v.1.13,2013-03-03 02:06:00,
2013-03-02 21:08:00,20.0,15.1,29.70,NNW,338,0.0,2.0,81,0.00,,,0.00,Wunderground v.1.13,2013-03-03 02:08:00,
2013-03-02 21:10:00,20.0,15.1,29.70,NNW,338,0.0,2.0,81,0.00,,,0.00,Wunderground v.1.13,2013-03-03 02:10:00,
2013-03-02 21:12:00,20.0,15.1,29.70,NNW,338,0.0,2.0,81,0.00,,,0.00,Wunderground v.1.13,2013-03-03 02:12:00,
2013-03-02 21:13:00,24.7,18.2,29.72,North,0,1.0,6.0,76,0.00,,,0.00,Wunderground v.1.13,2013-03-03 02:13:00,
2013-03-02 21:14:00,20.0,15.1,29.72,NW,315,1.0,3.0,81,0.00,,,0.00,Wunderground v.1.13,2013-03-03 02:14:00,
2013-03-02 21:16:00,20.0,15.1,29.72,NW,315,1.0,3.0,81,0.00,,,0.00,Wunderground v.1.13,2013-03-03 02:16:00,
2013-03-02 21:18:00,24.5,17.7,29.72,WNW,291,2.0,2.0,75,0.00,,,0.00,Wunderground v.1.13,2013-03-03 02:18:00,
2013-03-02 21:20:00,19.9,15.0,29.72,North,0,0.0,2.0,81,0.00,,,0.00,Wunderground v.1.13,2013-03-03 02:20:00,
2013-03-02 21:22:00,19.9,15.0,29.72,North,0,0.0,2.0,81,0.00,,,0.00,Wunderground v.1.13,2013-03-03 02:22:00,
2013-03-02 21:24:00,19.9,15.3,29.72,North,0,0.0,1.0,82,0.00,,,0.00,Wunderground v.1.13,2013-03-03 02:24:00,
2013-03-02 21:26:00,19.9,15.3,29.72,North,0,0.0,1.0,82,0.00,,,0.00,Wunderground v.1.13,2013-03-03 02:26:00,
2013-03-02 21:28:00,24.4,18.2,29.72,SE,136,1.0,1.0,77,0.00,,,0.00,Wunderground v.1.13,2013-03-03 02:28:00,
2013-03-02 21:30:00,19.9,15.0,29.72,North,0,0.0,1.0,81,0.00,,,0.00,Wunderground v.1.13,2013-03-03 02:30:00,
2013-03-02 21:32:00,19.9,15.0,29.72,North,0,0.0,1.0,81,0.00,,,0.00,Wunderground v.1.13,2013-03-03 02:32:00,
2013-03-02 21:34:00,19.9,15.0,29.72,North,0,1.0,2.0,81,0.00,,,0.00,Wunderground v.1.13,2013-03-03 02:34:00,
2013-03-02 21:36:00,19.9,15.0,29.72,North,0,1.0,2.0,81,0.00,,,0.00,Wunderground v.1.13,2013-03-03 02:36:00,
2013-03-02 21:38:00,24.1,17.9,29.72,NW,320,1.0,1.0,77,0.00,,,0.00,Wunderground v.1.13,2013-03-03 02:38:00,
2013-03-02 21:40:00,19.7,14.5,29.72,NW,315,1.0,2.0,80,0.00,,,0.00,Wunderground v.1.13,2013-03-03 02:40:00,
2013-03-02 21:42:00,19.7,14.5,29.72,NW,315,1.0,2.0,80,0.00,,,0.00,Wunderground v.1.13,2013-03-03 02:42:00,
2013-03-02 21:43:00,24.1,17.6,29.72,North,0,1.0,6.0,76,0.00,,,0.00,Wunderground v.1.13,2013-03-03 02:43:00,
2013-03-02 21:44:00,19.7,14.2,29.72,NNW,338,1.0,3.0,79,0.00,,,0.00,Wunderground v.1.13,2013-03-03 02:44:00,
2013-03-02 21:46:00,19.7,14.2,29.72,NNW,338,1.0,3.0,79,0.00,,,0.00,Wunderground v.1.13,2013-03-03 02:46:00,
2013-03-02 21:48:00,19.7,14.2,29.72,SSE,158,1.0,4.0,79,0.00,,,0.00,Wunderground v.1.13,2013-03-03 02:48:00,
2013-03-02 21:50:00,19.7,14.2,29.72,SSE,158,1.0,4.0,79,0.00,,,0.00,Wunderground v.1.13,2013-03-03 02:50:00,
2013-03-02 21:52:00,19.7,14.2,29.72,SSE,158,1.0,4.0,79,0.00,,,0.00,Wunderground v.1.13,2013-03-03 02:52:00,
2013-03-02 21:53:00,23.8,17.3,29.71,NE,38,1.0,3.0,76,0.00,,,0.00,Wunderground v.1.13,2013-03-03 02:53:00,
2013-03-02 21:54:00,19.7,14.2,29.72,ESE,113,0.0,2.0,79,0.00,,,0.00,Wunderground v.1.13,2013-03-03 02:54:00,
2013-03-02 21:56:00,19.7,14.2,29.72,ESE,113,0.0,2.0,79,0.00,,,0.00,Wunderground v.1.13,2013-03-03 02:56:00,
2013-03-02 21:58:00,23.6,17.4,29.71,NNE,21,1.0,6.0,77,0.00,,,0.00,Wunderground v.1.13,2013-03-03 02:58:00,
2013-03-02 22:00:00,19.7,14.2,29.72,ENE,68,0.0,1.0,79,0.00,,,0.00,Wunderground v.1.13,2013-03-03 03:00:00,
2013-03-02 22:02:00,19.7,14.2,29.72,ENE,68,0.0,1.0,79,0.00,,,0.00,Wunderground v.1.13,2013-03-03 03:02:00,
2013-03-02 22:04:00,19.5,14.0,29.72,WNW,293,0.0,2.0,79,0.00,,,0.00,Wunderground v.1.13,2013-03-03 03:04:00,
2013-03-02 22:06:00,19.5,14.0,29.72,WNW,293,0.0,2.0,79,0.00,,,0.00,Wunderground v.1.13,2013-03-03 03:06:00,
2013-03-02 22:08:00,23.5,17.3,29.72,WNW,299,1.0,1.0,77,0.00,,,0.00,Wunderground v.1.13,2013-03-03 03:08:00,
2013-03-02 22:10:00,19.5,14.3,29.72,SE,135,0.0,3.0,80,0.00,,,0.00,Wunderground v.1.13,2013-03-03 03:10:00,
2013-03-02 22:12:00,19.5,14.3,29.72,SE,135,0.0,3.0,80,0.00,,,0.00,Wunderground v.1.13,2013-03-03 03:12:00,
2013-03-02 22:14:00,19.4,14.2,29.73,WNW,293,0.0,2.0,80,0.00,,,0.00,Wunderground v.1.13,2013-03-03 03:14:00,
2013-03-02 22:16:00,19.4,14.2,29.73,WNW,293,0.0,2.0,80,0.00,,,0.00,Wunderground v.1.13,2013-03-03 03:16:00,
2013-03-02 22:18:00,23.3,17.5,29.71,ENE,73,0.0,1.0,78,0.00,,,0.00,Wunderground v.1.13,2013-03-03 03:18:00,
2013-03-02 22:20:00,19.4,14.5,29.73,NNE,23,0.0,2.0,81,0.00,,,0.00,Wunderground v.1.13,2013-03-03 03:20:00,
2013-03-02 22:22:00,19.4,14.5,29.73,NNE,23,0.0,2.0,81,0.00,,,0.00,Wunderground v.1.13,2013-03-03 03:22:00,
2013-03-02 22:23:00,23.2,17.9,29.71,North,0,1.0,1.0,80,0.00,,,0.00,Wunderground v.1.13,2013-03-03 03:23:00,
2013-03-02 22:24:00,19.4,14.2,29.73,NNE,23,0.0,1.0,80,0.00,,,0.00,Wunderground v.1.13,2013-03-03 03:24:00,
2013-03-02 22:26:00,19.4,14.2,29.73,NNE,23,0.0,1.0,80,0.00,,,0.00,Wunderground v.1.13,2013-03-03 03:26:00,
2013-03-02 22:28:00,19.4,14.2,29.73,NNW,338,0.0,3.0,80,0.00,,,0.00,Wunderground v.1.13,2013-03-03 03:28:00,
2013-03-02 22:30:00,19.4,14.2,29.73,NNW,338,0.0,3.0,80,0.00,,,0.00,Wunderground v.1.13,2013-03-03 03:30:00,
2013-03-02 22:32:00,19.4,14.2,29.73,NNW,338,0.0,3.0,80,0.00,,,0.00,Wunderground v.1.13,2013-03-03 03:32:00,
2013-03-02 22:33:00,23.2,17.7,29.71,ESE,123,1.0,3.0,79,0.00,,,0.00,Wunderground v.1.13,2013-03-03 03:33:00,
2013-03-02 22:34:00,19.4,13.7,29.73,NW,315,0.0,2.0,78,0.00,,,0.00,Wunderground v.1.13,2013-03-03 03:34:00,
2013-03-02 22:36:00,19.4,13.7,29.73,NW,315,0.0,2.0,78,0.00,,,0.00,Wunderground v.1.13,2013-03-03 03:36:00,
2013-03-02 22:38:00,19.2,13.5,29.73,NNW,338,0.0,1.0,78,0.00,,,0.00,Wunderground v.1.13,2013-03-03 03:38:00,
2013-03-02 22:40:00,19.2,13.5,29.73,NNW,338,0.0,1.0,78,0.00,,,0.00,Wunderground v.1.13,2013-03-03 03:40:00,
2013-03-02 22:42:00,19.2,13.5,29.73,NNW,338,0.0,1.0,78,0.00,,,0.00,Wunderground v.1.13,2013-03-03 03:42:00,
2013-03-02 22:43:00,23.0,17.7,29.71,North,3,1.0,1.0,80,0.00,,,0.00,Wunderground v.1.13,2013-03-03 03:43:00,
2013-03-02 22:44:00,19.2,13.5,29.74,NW,315,1.0,3.0,78,0.00,,,0.00,Wunderground v.1.13,2013-03-03 03:44:00,
2013-03-02 22:46:00,19.2,13.5,29.74,NW,315,1.0,3.0,78,0.00,,,0.00,Wunderground v.1.13,2013-03-03 03:46:00,
2013-03-02 22:48:00,19.2,13.8,29.74,NW,315,0.0,1.0,79,0.00,,,0.00,Wunderground v.1.13,2013-03-03 03:48:00,
2013-03-02 22:50:00,19.2,13.8,29.74,NW,315,0.0,1.0,79,0.00,,,0.00,Wunderground v.1.13,2013-03-03 03:50:00,
2013-03-02 22:52:00,19.2,13.8,29.74,NW,315,0.0,1.0,79,0.00,,,0.00,Wunderground v.1.13,2013-03-03 03:52:00,
2013-03-02 22:53:00,22.9,17.7,29.70,North,356,1.0,5.0,80,0.00,,,0.00,Wunderground v.1.13,2013-03-03 03:53:00,
2013-03-02 22:54:00,19.2,13.8,29.74,NW,315,0.0,1.0,79,0.00,,,0.00,Wunderground v.1.13,2013-03-03 03:54:00,
2013-03-02 22:56:00,19.2,13.8,29.74,NW,315,0.0,1.0,79,0.00,,,0.00,Wunderground v.1.13,2013-03-03 03:56:00,
2013-03-02 22:58:00,19.2,14.0,29.74,NW,315,0.0,2.0,80,0.00,,,0.00,Wunderground v.1.13,2013-03-03 03:58:00,
2013-03-02 23:00:00,19.2,14.0,29.74,NW,315,0.0,2.0,80,0.00,,,0.00,Wunderground v.1.13,2013-03-03 04:00:00,
2013-03-02 23:02:00,19.2,14.0,29.74,NW,315,0.0,2.0,80,0.00,,,0.00,Wunderground v.1.13,2013-03-03 04:02:00,
2013-03-02 23:03:00,22.9,17.4,29.70,WNW,291,1.0,4.0,79,0.00,,,0.00,Wunderground v.1.13,2013-03-03 04:03:00,
2013-03-02 23:04:00,19.1,13.7,29.74,NW,315,0.0,2.0,79,0.00,,,0.00,Wunderground v.1.13,2013-03-03 04:04:00,
2013-03-02 23:06:00,19.1,13.7,29.74,NW,315,0.0,2.0,79,0.00,,,0.00,Wunderground v.1.13,2013-03-03 04:06:00,
2013-03-02 23:08:00,22.9,17.1,29.70,WNW,299,1.0,1.0,78,0.00,,,0.00,Wunderground v.1.13,2013-03-03 04:08:00,
2013-03-02 23:10:00,19.1,13.4,29.74,NW,315,0.0,2.0,78,0.00,,,0.00,Wunderground v.1.13,2013-03-03 04:10:00,
2013-03-02 23:12:00,19.1,13.4,29.74,NW,315,0.0,2.0,78,0.00,,,0.00,Wunderground v.1.13,2013-03-03 04:12:00,
2013-03-02 23:14:00,19.1,13.1,29.74,WNW,293,0.0,2.0,77,0.00,,,0.00,Wunderground v.1.13,2013-03-03 04:14:00,
2013-03-02 23:16:00,19.1,13.1,29.74,WNW,293,0.0,2.0,77,0.00,,,0.00,Wunderground v.1.13,2013-03-03 04:16:00,
2013-03-02 23:18:00,22.7,16.3,29.70,North,8,1.0,7.0,76,0.00,,,0.00,Wunderground v.1.13,2013-03-03 04:18:00,
2013-03-02 23:20:00,18.9,13.2,29.74,NNW,338,0.0,4.0,78,0.00,,,0.00,Wunderground v.1.13,2013-03-03 04:20:00,
2013-03-02 23:22:00,18.9,13.2,29.74,NNW,338,0.0,4.0,78,0.00,,,0.00,Wunderground v.1.13,2013-03-03 04:22:00,
2013-03-02 23:24:00,18.9,12.9,29.74,NNW,338,0.0,1.0,77,0.00,,,0.00,Wunderground v.1.13,2013-03-03 04:24:00,
2013-03-02 23:26:00,18.9,12.9,29.74,NNW,338,0.0,1.0,77,0.00,,,0.00,Wunderground v.1.13,2013-03-03 04:26:00,
2013-03-02 23:28:00,22.5,16.7,29.70,North,0,1.0,1.0,78,0.00,,,0.00,Wunderground v.1.13,2013-03-03 04:28:00,
2013-03-02 23:30:00,18.8,12.8,29.74,NNW,338,1.0,5.0,77,0.00,,,0.00,Wunderground v.1.13,2013-03-03 04:30:00,
2013-03-02 23:32:00,18.8,12.8,29.74,NNW,338,1.0,5.0,77,0.00,,,0.00,Wunderground v.1.13,2013-03-03 04:32:00,
2013-03-02 23:33:00,22.4,16.3,29.70,NNW,332,1.0,3.0,77,0.00,,,0.00,Wunderground v.1.13,2013-03-03 04:33:00,
2013-03-02 23:34:00,18.8,13.1,29.74,North,0,0.0,2.0,78,0.00,,,0.00,Wunderground v.1.13,2013-03-03 04:34:00,
2013-03-02 23:36:00,18.8,13.1,29.74,North,0,0.0,2.0,78,0.00,,,0.00,Wunderground v.1.13,2013-03-03 04:36:00,
2013-03-02 23:38:00,18.8,12.8,29.74,NW,315,0.0,2.0,77,0.00,,,0.00,Wunderground v.1.13,2013-03-03 04:38:00,
2013-03-02 23:40:00,18.8,12.8,29.74,NW,315,0.0,2.0,77,0.00,,,0.00,Wunderground v.1.13,2013-03-03 04:40:00,
2013-03-02 23:42:00,18.8,12.8,29.74,NW,315,0.0,2.0,77,0.00,,,0.00,Wunderground v.1.13,2013-03-03 04:42:00,
2013-03-02 23:43:00,22.2,16.4,29.70,NW,326,1.0,1.0,78,0.00,,,0.00,Wunderground v.1.13,2013-03-03 04:43:00,
2013-03-02 23:44:00,18.8,12.8,29.74,NW,315,1.0,3.0,77,0.00,,,0.00,Wunderground v.1.13,2013-03-03 04:44:00,
2013-03-02 23:46:00,18.8,12.8,29.74,NW,315,1.0,3.0,77,0.00,,,0.00,Wunderground v.1.13,2013-03-03 04:46:00,
2013-03-02 23:48:00,18.8,13.1,29.74,NW,315,1.0,5.0,78,0.00,,,0.00,Wunderground v.1.13,2013-03-03 04:48:00,
2013-03-02 23:50:00,18.8,13.1,29.74,NW,315,1.0,5.0,78,0.00,,,0.00,Wunderground v.1.13,2013-03-03 04:50:00,
2013-03-02 23:52:00,18.8,13.1,29.74,NW,315,1.0,5.0,78,0.00,,,0.00,Wunderground v.1.13,2013-03-03 04:52:00,
2013-03-02 23:53:00,22.2,16.4,29.70,NNE,23,1.0,1.0,78,0.00,,,0.00,Wunderground v.1.13,2013-03-03 04:53:00,
2013-03-02 23:54:00,18.6,12.6,29.74,NNW,338,1.0,3.0,77,0.00,,,0.00,Wunderground v.1.13,2013-03-03 04:54:00,
2013-03-02 23:56:00,18.6,12.6,29.74,NNW,338,1.0,3.0,77,0.00,,,0.00,Wunderground v.1.13,2013-03-03 04:56:00,
2013-03-02 23:58:00,18.6,12.3,29.74,North,0,0.0,2.0,76,0.00,,,0.00,Wunderground v.1.13,2013-03-03 04:58:00,